Wetterdaten: Montag, 22.02.2016
Datum Zeit Temp. Aussen Temp. o. S. +5cm Feuchte Auss BlattFeu 1 Luftdruck Regen Sonnenschein Regendauer Solar Windben Empfang
22.02.2016 00:00 11,6 C 11,7 C 10,0 C 87 % 0 lf 1007,4 hPa 0,0 l/m 0 min 0 min 0 W/m 35,6 km/h (5 Bft) 97,87 %
22.02.2016 00:02 11,6 C 11,7 C 10,0 C 87 % 0 lf 1007,3 hPa 0,0 l/m 0 min 0 min 0 W/m 39,7 km/h (6 Bft) 100,00 %
22.02.2016 00:06 11,6 C 11,7 C 10,0 C 87 % 0 lf 1007,4 hPa 0,0 l/m 0 min 0 min 0 W/m 56,5 km/h (7 Bft) 93,07 %
22.02.2016 00:08 11,5 C 11,7 C 10,0 C 87 % 0 lf 1007,4 hPa 0,0 l/m 0 min 0 min 0 W/m 41,8 km/h (6 Bft) 97,87 %
22.02.2016 00:10 11,5 C 11,7 C 10,0 C 87 % 0 lf 1007,3 hPa 0,0 l/m 0 min 0 min 0 W/m 56,5 km/h (7 Bft) 100,00 %
22.02.2016 00:12 11,5 C 11,7 C 10,0 C 87 % 0 lf 1007,3 hPa 0,0 l/m 0 min 0 min 0 W/m 43,9 km/h (6 Bft) 93,48 %
22.02.2016 00:14 11,5 C 11,7 C 10,0 C 87 % 0 lf 1007,3 hPa 0,0 l/m 0 min 0 min 0 W/m 41,8 km/h (6 Bft) 100,00 %
22.02.2016 00:16 11,5 C 11,7 C 10,0 C 87 % 0 lf 1007,4 hPa 0,0 l/m 0 min 0 min 0 W/m 41,8 km/h (6 Bft) 97,87 %
22.02.2016 00:18 11,5 C 11,7 C 10,0 C 87 % 0 lf 1007,3 hPa 0,0 l/m 0 min 0 min 0 W/m 54,4 km/h (7 Bft) 100,00 %
22.02.2016 00:20 11,5 C 11,7 C 10,0 C 87 % 0 lf 1007,4 hPa 0,0 l/m 0 min 0 min 0 W/m 50,2 km/h (7 Bft) 97,87 %
22.02.2016 00:22 11,5 C 11,7 C 10,0 C 87 % 0 lf 1007,2 hPa 0,0 l/m 0 min 0 min 0 W/m 56,5 km/h (7 Bft) 97,87 %
22.02.2016 00:24 11,5 C 11,7 C 10,0 C 86 % 0 lf 1007,2 hPa 0,0 l/m 0 min 0 min 0 W/m 43,9 km/h (6 Bft) 97,83 %
22.02.2016 00:26 11,5 C 11,7 C 10,0 C 86 % 0 lf 1007,2 hPa 0,0 l/m 0 min 0 min 0 W/m 56,5 km/h (7 Bft) 97,87 %
22.02.2016 00:28 11,5 C 11,7 C 10,0 C 86 % 0 lf 1007,3 hPa 0,0 l/m 0 min 0 min 0 W/m 54,4 km/h (7 Bft) 97,87 %
22.02.2016 00:30 11,5 C 11,7 C 10,0 C 85 % 0 lf 1007,2 hPa 0,0 l/m 0 min 0 min 0 W/m 41,8 km/h (6 Bft) 97,87 %
22.02.2016 00:32 11,4 C 11,7 C 10,0 C 85 % 0 lf 1007,2 hPa 0,0 l/m 0 min 0 min 0 W/m 48,1 km/h (6 Bft) 100,00 %
22.02.2016 00:34 11,4 C 11,7 C 10,0 C 84 % 0 lf 1007,1 hPa 0,0 l/m 0 min 0 min 0 W/m 39,7 km/h (6 Bft) 97,87 %
22.02.2016 00:36 11,4 C 11,1 C 10,0 C 84 % 0 lf 1007,1 hPa 0,0 l/m 0 min 0 min 0 W/m 43,9 km/h (6 Bft) 95,65 %
22.02.2016 00:38 11,4 C 11,7 C 9,4 C 84 % 0 lf 1007,1 hPa 0,0 l/m 0 min 0 min 0 W/m 43,9 km/h (6 Bft) 97,87 %
22.02.2016 00:40 11,4 C 11,7 C 9,4 C 84 % 0 lf 1007,2 hPa 0,0 l/m 0 min 0 min 0 W/m 46,0 km/h (6 Bft) 95,74 %
22.02.2016 00:42 11,4 C 11,1 C 9,4 C 83 % 0 lf 1007,2 hPa 0,0 l/m 0 min 0 min 0 W/m 43,9 km/h (6 Bft) 95,74 %
22.02.2016 00:44 11,3 C 11,7 C 9,4 C 83 % 0 lf 1007,2 hPa 0,0 l/m 0 min 0 min 0 W/m 39,7 km/h (6 Bft) 97,87 %
22.02.2016 00:46 11,3 C 11,7 C 9,4 C 83 % 0 lf 1007,2 hPa 0,0 l/m 0 min 0 min 0 W/m 54,4 km/h (7 Bft) 100,00 %
22.02.2016 00:48 11,3 C 11,7 C 9,4 C 83 % 0 lf 1007,2 hPa 0,0 l/m 0 min 0 min 0 W/m 46,0 km/h (6 Bft) 97,83 %
22.02.2016 00:50 11,3 C 11,7 C 9,4 C 83 % 0 lf 1007,1 hPa 0,0 l/m 0 min 0 min 0 W/m 48,1 km/h (6 Bft) 97,87 %
22.02.2016 00:52 11,3 C 11,7 C 10,0 C 83 % 0 lf 1007,1 hPa 0,0 l/m 0 min 0 min 0 W/m 43,9 km/h (6 Bft) 93,62 %
22.02.2016 00:54 11,3 C 11,7 C 9,4 C 83 % 0 lf 1007,1 hPa 0,0 l/m 0 min 0 min 0 W/m 62,8 km/h (8 Bft) 97,87 %
22.02.2016 00:56 11,3 C 11,7 C 9,4 C 83 % 0 lf 1007,1 hPa 0,0 l/m 0 min 0 min 0 W/m 62,8 km/h (8 Bft) 97,87 %
22.02.2016 00:58 11,4 C 11,1 C 9,4 C 83 % 0 lf 1007,2 hPa 0,0 l/m 0 min 0 min 0 W/m 29,3 km/h (5 Bft) 97,87 %
22.02.2016 01:00 11,3 C 11,1 C 9,4 C 83 % 0 lf 1007,1 hPa 0,0 l/m 0 min 0 min 0 W/m 41,8 km/h (6 Bft) 97,83 %
22.02.2016 01:02 11,3 C 11,1 C 9,4 C 83 % 0 lf 1007,1 hPa 0,0 l/m 0 min 0 min 0 W/m 43,9 km/h (6 Bft) 95,74 %
22.02.2016 01:04 11,3 C 11,1 C 9,4 C 83 % 0 lf 1007,1 hPa 0,0 l/m 0 min 0 min 0 W/m 39,7 km/h (6 Bft) 97,87 %
22.02.2016 01:06 11,3 C 11,1 C 9,4 C 83 % 0 lf 1007,0 hPa 0,0 l/m 0 min 0 min 0 W/m 46,0 km/h (6 Bft) 97,87 %
22.02.2016 01:08 11,3 C 11,7 C 9,4 C 84 % 0 lf 1007,0 hPa 0,0 l/m 0 min 0 min 0 W/m 52,3 km/h (7 Bft) 95,74 %
22.02.2016 01:10 11,3 C 11,7 C 9,4 C 84 % 0 lf 1007,1 hPa 0,0 l/m 0 min 0 min 0 W/m 41,8 km/h (6 Bft) 97,83 %
22.02.2016 01:12 11,3 C 11,1 C 9,4 C 84 % 0 lf 1006,9 hPa 0,0 l/m 0 min 0 min 0 W/m 31,4 km/h (5 Bft) 95,74 %
22.02.2016 01:14 11,3 C 11,1 C 9,4 C 84 % 0 lf 1006,9 hPa 0,0 l/m 0 min 0 min 0 W/m 37,7 km/h (5 Bft) 100,00 %
22.02.2016 01:16 11,3 C 11,7 C 9,4 C 84 % 0 lf 1007,0 hPa 0,0 l/m 0 min 0 min 0 W/m 48,1 km/h (6 Bft) 97,87 %
22.02.2016 01:18 11,3 C 11,7 C 9,4 C 84 % 0 lf 1006,9 hPa 0,0 l/m 0 min 0 min 0 W/m 35,6 km/h (5 Bft) 97,87 %
22.02.2016 01:20 11,3 C 11,1 C 10,0 C 85 % 0 lf 1006,9 hPa 0,0 l/m 0 min 0 min 0 W/m 39,7 km/h (6 Bft) 100,00 %
22.02.2016 01:22 11,3 C 11,7 C 10,0 C 84 % 0 lf 1006,8 hPa 0,0 l/m 0 min 0 min 0 W/m 56,5 km/h (7 Bft) 100,00 %
22.02.2016 01:24 11,3 C 11,7 C 10,0 C 85 % 0 lf 1006,9 hPa 0,0 l/m 0 min 0 min 0 W/m 35,6 km/h (5 Bft) 95,65 %
22.02.2016 01:26 11,2 C 11,7 C 10,0 C 85 % 0 lf 1006,9 hPa 0,0 l/m 0 min 0 min 0 W/m 39,7 km/h (6 Bft) 97,87 %
22.02.2016 01:28 11,3 C 11,7 C 10,0 C 85 % 0 lf 1007,0 hPa 0,0 l/m 0 min 0 min 0 W/m 54,4 km/h (7 Bft) 100,00 %
22.02.2016 01:30 11,2 C 11,7 C 10,0 C 85 % 0 lf 1007,0 hPa 0,0 l/m 0 min 0 min 0 W/m 48,1 km/h (6 Bft) 95,74 %
22.02.2016 01:32 11,2 C 11,7 C 10,0 C 84 % 0 lf 1006,9 hPa 0,0 l/m 0 min 0 min 0 W/m 43,9 km/h (6 Bft) 100,00 %
22.02.2016 01:34 11,2 C 11,7 C 10,0 C 85 % 0 lf 1006,8 hPa 0,0 l/m 0 min 0 min 0 W/m 27,2 km/h (4 Bft) 97,83 %
22.02.2016 01:36 11,2 C 11,7 C 10,0 C 85 % 0 lf 1006,8 hPa 0,0 l/m 0 min 0 min 0 W/m 27,2 km/h (4 Bft) 100,00 %
22.02.2016 01:38 11,2 C 11,7 C 10,0 C 84 % 0 lf 1006,9 hPa 0,0 l/m 0 min 0 min 0 W/m 39,7 km/h (6 Bft) 97,87 %
22.02.2016 01:40 11,2 C 11,7 C 10,0 C 84 % 0 lf 1006,8 hPa 0,0 l/m 0 min 0 min 0 W/m 37,7 km/h (5 Bft) 100,00 %
22.02.2016 01:42 11,2 C 11,7 C 10,0 C 84 % 0 lf 1006,8 hPa 0,0 l/m 0 min 0 min 0 W/m 39,7 km/h (6 Bft) 100,00 %
22.02.2016 01:44 11,2 C 11,7 C 10,0 C 84 % 0 lf 1006,8 hPa 0,0 l/m 0 min 0 min 0 W/m 46,0 km/h (6 Bft) 100,00 %
22.02.2016 01:46 11,2 C 11,7 C 10,0 C 84 % 0 lf 1006,8 hPa 0,0 l/m 0 min 0 min 0 W/m 48,1 km/h (6 Bft) 97,83 %
22.02.2016 01:48 11,3 C 11,7 C 10,0 C 84 % 0 lf 1006,8 hPa 0,0 l/m 0 min 0 min 0 W/m 41,8 km/h (6 Bft) 95,74 %
22.02.2016 01:50 11,3 C 11,7 C 10,0 C 83 % 0 lf 1006,8 hPa 0,0 l/m 0 min 0 min 0 W/m 43,9 km/h (6 Bft) 100,00 %
22.02.2016 01:52 11,3 C 11,7 C 10,0 C 83 % 0 lf 1006,7 hPa 0,0 l/m 0 min 0 min 0 W/m 52,3 km/h (7 Bft) 100,00 %
22.02.2016 01:54 11,3 C 11,7 C 10,0 C 83 % 0 lf 1006,7 hPa 0,0 l/m 0 min 0 min 0 W/m 46,0 km/h (6 Bft) 100,00 %
22.02.2016 01:56 11,3 C 11,7 C 10,0 C 83 % 0 lf 1006,7 hPa 0,0 l/m 0 min 0 min 0 W/m 46,0 km/h (6 Bft) 97,87 %
22.02.2016 01:58 11,3 C 11,7 C 10,0 C 83 % 0 lf 1006,7 hPa 0,0 l/m 0 min 0 min 0 W/m 48,1 km/h (6 Bft) 100,00 %
22.02.2016 02:00 11,3 C 11,7 C 10,0 C 83 % 0 lf 1006,7 hPa 0,0 l/m 0 min 0 min 0 W/m 33,5 km/h (5 Bft) 95,65 %
22.02.2016 02:02 11,3 C 11,7 C 10,0 C 83 % 0 lf 1006,8 hPa 0,0 l/m 0 min 0 min 0 W/m 33,5 km/h (5 Bft) 95,74 %
22.02.2016 02:04 11,3 C 11,7 C 10,0 C 83 % 0 lf 1006,8 hPa 0,0 l/m 0 min 0 min 0 W/m 35,6 km/h (5 Bft) 97,87 %
22.02.2016 02:06 11,3 C 11,7 C 10,0 C 82 % 0 lf 1006,7 hPa 0,0 l/m 0 min 0 min 0 W/m 39,7 km/h (6 Bft) 97,87 %
22.02.2016 02:08 11,3 C 11,7 C 10,0 C 82 % 0 lf 1006,6 hPa 0,0 l/m 0 min 0 min 0 W/m 29,3 km/h (5 Bft) 95,74 %
22.02.2016 02:10 11,3 C 11,7 C 10,0 C 82 % 0 lf 1006,7 hPa 0,0 l/m 0 min 0 min 0 W/m 43,9 km/h (6 Bft) 97,83 %
22.02.2016 02:12 11,3 C 11,7 C 10,0 C 82 % 0 lf 1006,7 hPa 0,0 l/m 0 min 0 min 0 W/m 46,0 km/h (6 Bft) 93,62 %
22.02.2016 02:14 11,3 C 11,7 C 10,0 C 82 % 0 lf 1006,6 hPa 0,0 l/m 0 min 0 min 0 W/m 37,7 km/h (5 Bft) 93,62 %
22.02.2016 02:16 11,3 C 11,7 C 10,0 C 82 % 0 lf 1006,7 hPa 0,0 l/m 0 min 0 min 0 W/m 27,2 km/h (4 Bft) 95,74 %
22.02.2016 02:18 11,3 C 11,7 C 10,0 C 82 % 0 lf 1006,7 hPa 0,0 l/m 0 min 0 min 0 W/m 43,9 km/h (6 Bft) 93,62 %
22.02.2016 02:20 11,3 C 11,7 C 10,0 C 82 % 0 lf 1006,7 hPa 0,0 l/m 0 min 0 min 0 W/m 41,8 km/h (6 Bft) 93,62 %
22.02.2016 02:22 11,3 C 11,7 C 10,0 C 82 % 0 lf 1006,6 hPa 0,0 l/m 0 min 0 min 0 W/m 48,1 km/h (6 Bft) 95,65 %
22.02.2016 02:24 11,3 C 11,7 C 10,0 C 82 % 0 lf 1006,7 hPa 0,0 l/m 0 min 0 min 0 W/m 31,4 km/h (5 Bft) 91,49 %
22.02.2016 02:26 11,3 C 11,7 C 10,0 C 83 % 0 lf 1006,6 hPa 0,0 l/m 0 min 0 min 0 W/m 37,7 km/h (5 Bft) 93,62 %
22.02.2016 02:28 11,3 C 11,7 C 10,0 C 83 % 0 lf 1006,7 hPa 0,0 l/m 0 min 0 min 0 W/m 37,7 km/h (5 Bft) 91,49 %
22.02.2016 02:30 11,3 C 11,1 C 10,0 C 83 % 0 lf 1006,7 hPa 0,0 l/m 0 min 0 min 0 W/m 50,2 km/h (7 Bft) 89,36 %
22.02.2016 02:32 11,3 C 11,7 C 10,0 C 83 % 0 lf 1006,6 hPa 0,0 l/m 0 min 0 min 0 W/m 46,0 km/h (6 Bft) 95,74 %
22.02.2016 02:34 11,2 C 11,7 C 10,0 C 83 % 0 lf 1006,7 hPa 0,0 l/m 0 min 0 min 0 W/m 39,7 km/h (6 Bft) 93,48 %
22.02.2016 02:36 11,2 C 11,7 C 10,0 C 83 % 0 lf 1006,5 hPa 0,0 l/m 0 min 0 min 0 W/m 41,8 km/h (6 Bft) 85,11 %
22.02.2016 02:38 11,2 C 11,7 C 10,0 C 83 % 0 lf 1006,4 hPa 0,0 l/m 0 min 0 min 0 W/m 50,2 km/h (7 Bft) 91,49 %
22.02.2016 02:40 11,2 C 11,7 C 10,0 C 83 % 0 lf 1006,4 hPa 0,0 l/m 0 min 0 min 0 W/m 46,0 km/h (6 Bft) 93,62 %
22.02.2016 02:42 11,2 C 11,7 C 10,0 C 83 % 0 lf 1006,3 hPa 0,0 l/m 0 min 0 min 0 W/m 41,8 km/h (6 Bft) 91,49 %
22.02.2016 02:44 11,2 C 11,7 C 10,0 C 83 % 0 lf 1006,2 hPa 0,0 l/m 0 min 0 min 0 W/m 39,7 km/h (6 Bft) 89,36 %
22.02.2016 02:46 11,2 C 11,1 C 10,0 C 83 % 0 lf 1006,4 hPa 0,0 l/m 0 min 0 min 0 W/m 31,4 km/h (5 Bft) 89,13 %
22.02.2016 02:48 11,2 C 11,7 C 10,0 C 83 % 0 lf 1006,2 hPa 0,0 l/m 0 min 0 min 0 W/m 46,0 km/h (6 Bft) 87,23 %
22.02.2016 02:50 11,2 C 11,1 C 9,4 C 83 % 0 lf 1006,2 hPa 0,0 l/m 0 min 0 min 0 W/m 31,4 km/h (5 Bft) 91,49 %
22.02.2016 02:52 11,2 C 11,1 C 9,4 C 83 % 0 lf 1006,2 hPa 0,0 l/m 0 min 0 min 0 W/m 33,5 km/h (5 Bft) 91,49 %
22.02.2016 02:54 11,2 C 11,1 C 9,4 C 83 % 0 lf 1006,2 hPa 0,0 l/m 0 min 0 min 0 W/m 39,7 km/h (6 Bft) 93,62 %
22.02.2016 02:56 11,2 C 11,1 C 9,4 C 83 % 0 lf 1006,2 hPa 0,0 l/m 0 min 0 min 0 W/m 52,3 km/h (7 Bft) 95,65 %
22.02.2016 02:58 11,2 C 11,1 C 9,4 C 83 % 0 lf 1006,1 hPa 0,0 l/m 0 min 0 min 0 W/m 52,3 km/h (7 Bft) 91,49 %
22.02.2016 03:00 11,2 C 11,1 C 9,4 C 83 % 0 lf 1006,2 hPa 0,0 l/m 0 min 0 min 0 W/m 50,2 km/h (7 Bft) 95,74 %
22.02.2016 03:02 11,2 C 11,1 C 9,4 C 83 % 0 lf 1006,2 hPa 0,0 l/m 0 min 0 min 0 W/m 39,7 km/h (6 Bft) 95,74 %
22.02.2016 03:04 11,2 C 11,1 C 9,4 C 83 % 0 lf 1006,2 hPa 0,0 l/m 0 min 0 min 0 W/m 39,7 km/h (6 Bft) 91,49 %
22.02.2016 03:06 11,2 C 11,1 C 9,4 C 83 % 0 lf 1006,2 hPa 0,0 l/m 0 min 0 min 0 W/m 35,6 km/h (5 Bft) 97,87 %
22.02.2016 03:08 11,2 C 11,1 C 9,4 C 83 % 0 lf 1006,3 hPa 0,0 l/m 0 min 0 min 0 W/m 41,8 km/h (6 Bft) 95,65 %
22.02.2016 03:10 11,1 C 11,1 C 9,4 C 83 % 0 lf 1006,2 hPa 0,0 l/m 0 min 0 min 0 W/m 39,7 km/h (6 Bft) 95,74 %
22.02.2016 03:12 11,2 C 11,1 C 9,4 C 83 % 0 lf 1006,4 hPa 0,0 l/m 0 min 0 min 0 W/m 37,7 km/h (5 Bft) 95,74 %
22.02.2016 03:14 11,1 C 11,1 C 9,4 C 83 % 0 lf 1006,2 hPa 0,0 l/m 0 min 0 min 0 W/m 48,1 km/h (6 Bft) 97,87 %
22.02.2016 03:16 11,1 C 11,1 C 9,4 C 83 % 0 lf 1006,3 hPa 0,0 l/m 0 min 0 min 0 W/m 48,1 km/h (6 Bft) 91,49 %
22.02.2016 03:18 11,1 C 11,1 C 9,4 C 83 % 0 lf 1006,3 hPa 0,0 l/m 0 min 0 min 0 W/m 35,6 km/h (5 Bft) 95,74 %
22.02.2016 03:20 11,1 C 11,1 C 9,4 C 83 % 0 lf 1006,3 hPa 0,0 l/m 0 min 0 min 0 W/m 43,9 km/h (6 Bft) 93,48 %
22.02.2016 03:22 11,1 C 11,1 C 9,4 C 83 % 0 lf 1006,3 hPa 0,0 l/m 0 min 0 min 0 W/m 46,0 km/h (6 Bft) 97,87 %
22.02.2016 03:24 11,1 C 11,1 C 9,4 C 84 % 0 lf 1006,2 hPa 0,0 l/m 0 min 0 min 0 W/m 41,8 km/h (6 Bft) 97,87 %
22.02.2016 03:26 11,1 C 11,1 C 9,4 C 84 % 0 lf 1006,2 hPa 0,0 l/m 0 min 0 min 0 W/m 43,9 km/h (6 Bft) 95,74 %
22.02.2016 03:28 11,1 C 11,1 C 9,4 C 84 % 0 lf 1006,3 hPa 0,0 l/m 0 min 0 min 0 W/m 46,0 km/h (6 Bft) 97,87 %
22.02.2016 03:30 11,1 C 11,1 C 9,4 C 84 % 0 lf 1006,4 hPa 0,0 l/m 0 min 0 min 0 W/m 41,8 km/h (6 Bft) 95,74 %
22.02.2016 03:32 11,0 C 11,1 C 9,4 C 84 % 0 lf 1006,3 hPa 0,0 l/m 0 min 0 min 0 W/m 52,3 km/h (7 Bft) 95,65 %
22.02.2016 03:34 10,9 C 11,1 C 9,4 C 85 % 0 lf 1006,5 hPa 0,0 l/m 0 min 0 min 0 W/m 66,9 km/h (8 Bft) 100,00 %
22.02.2016 03:36 10,9 C 11,1 C 9,4 C 85 % 0 lf 1006,3 hPa 0,0 l/m 0 min 0 min 0 W/m 48,1 km/h (6 Bft) 97,87 %
22.02.2016 03:38 10,9 C 11,1 C 9,4 C 85 % 0 lf 1006,3 hPa 0,0 l/m 0 min 0 min 0 W/m 35,6 km/h (5 Bft) 95,74 %
22.02.2016 03:40 10,9 C 11,1 C 9,4 C 85 % 0 lf 1006,4 hPa 0,0 l/m 0 min 0 min 0 W/m 43,9 km/h (6 Bft) 95,74 %
22.02.2016 03:42 10,9 C 11,1 C 9,4 C 85 % 0 lf 1006,6 hPa 0,0 l/m 0 min 0 min 0 W/m 46,0 km/h (6 Bft) 97,83 %
22.02.2016 03:44 10,8 C 10,6 C 9,4 C 85 % 0 lf 1006,4 hPa 0,0 l/m 0 min 0 min 0 W/m 41,8 km/h (6 Bft) 100,00 %
22.02.2016 03:46 10,8 C 10,6 C 9,4 C 86 % 0 lf 1006,4 hPa 0,0 l/m 0 min 0 min 0 W/m 37,7 km/h (5 Bft) 100,00 %
22.02.2016 03:48 10,8 C 10,6 C 9,4 C 86 % 0 lf 1006,6 hPa 0,0 l/m 0 min 0 min 0 W/m 46,0 km/h (6 Bft) 97,87 %
22.02.2016 03:50 10,8 C 10,6 C 9,4 C 86 % 0 lf 1006,5 hPa 0,0 l/m 0 min 0 min 0 W/m 31,4 km/h (5 Bft) 97,87 %
22.02.2016 03:52 10,8 C 10,6 C 8,9 C 86 % 1 lf 1006,4 hPa 0,0 l/m 0 min 0 min 0 W/m 33,5 km/h (5 Bft) 95,74 %
22.02.2016 03:54 10,7 C 10,6 C 8,9 C 86 % 1 lf 1006,6 hPa 0,0 l/m 0 min 0 min 0 W/m 35,6 km/h (5 Bft) 100,00 %
22.02.2016 03:56 10,7 C 10,0 C 8,9 C 86 % 0 lf 1006,5 hPa 0,0 l/m 0 min 0 min 0 W/m 37,7 km/h (5 Bft) 100,00 %
22.02.2016 03:58 10,7 C 10,0 C 8,9 C 87 % 0 lf 1006,5 hPa 0,0 l/m 0 min 0 min 0 W/m 29,3 km/h (5 Bft) 97,87 %
22.02.2016 04:00 10,6 C 10,0 C 8,9 C 87 % 0 lf 1006,5 hPa 0,0 l/m 0 min 0 min 0 W/m 31,4 km/h (5 Bft) 95,74 %
22.02.2016 04:02 10,6 C 10,0 C 8,9 C 88 % 0 lf 1006,4 hPa 0,0 l/m 0 min 0 min 0 W/m 39,7 km/h (6 Bft) 100,00 %
22.02.2016 04:07 10,4 C 10,0 C 8,9 C 88 % 0 lf 1006,3 hPa 0,0 l/m 0 min 0 min 0 W/m 31,4 km/h (5 Bft) 100,00 %
22.02.2016 04:08 10,4 C 10,0 C 8,9 C 88 % 0 lf 1006,3 hPa 0,0 l/m 0 min 0 min 0 W/m 41,8 km/h (6 Bft) 100,00 %
22.02.2016 04:10 10,4 C 10,0 C 8,9 C 89 % 0 lf 1006,3 hPa 0,0 l/m 0 min 0 min 0 W/m 35,6 km/h (5 Bft) 100,00 %
22.02.2016 04:12 10,3 C 10,0 C 8,9 C 89 % 0 lf 1006,3 hPa 0,0 l/m 0 min 0 min 0 W/m 46,0 km/h (6 Bft) 100,00 %
22.02.2016 04:14 10,3 C 10,0 C 8,9 C 89 % 0 lf 1006,3 hPa 0,0 l/m 0 min 0 min 0 W/m 25,1 km/h (4 Bft) 100,00 %
22.02.2016 04:16 10,2 C 10,0 C 8,9 C 89 % 0 lf 1006,4 hPa 0,0 l/m 0 min 0 min 0 W/m 37,7 km/h (5 Bft) 100,00 %
22.02.2016 04:18 10,2 C 10,0 C 8,9 C 89 % 0 lf 1006,3 hPa 0,0 l/m 0 min 0 min 0 W/m 35,6 km/h (5 Bft) 97,83 %
22.02.2016 04:20 10,2 C 10,0 C 8,9 C 89 % 0 lf 1006,3 hPa 0,0 l/m 0 min 0 min 0 W/m 46,0 km/h (6 Bft) 97,87 %
22.02.2016 04:22 10,2 C 10,0 C 8,9 C 90 % 0 lf 1006,3 hPa 0,0 l/m 0 min 0 min 0 W/m 46,0 km/h (6 Bft) 100,00 %
22.02.2016 04:24 10,2 C 10,0 C 8,9 C 90 % 0 lf 1006,3 hPa 0,0 l/m 0 min 0 min 0 W/m 52,3 km/h (7 Bft) 95,74 %
22.02.2016 04:26 10,2 C 10,0 C 8,9 C 90 % 0 lf 1006,3 hPa 0,0 l/m 0 min 0 min 0 W/m 48,1 km/h (6 Bft) 100,00 %
22.02.2016 04:28 10,2 C 10,0 C 8,9 C 90 % 1 lf 1006,3 hPa 0,0 l/m 0 min 0 min 0 W/m 48,1 km/h (6 Bft) 97,87 %
22.02.2016 04:30 10,2 C 10,0 C 8,9 C 90 % 0 lf 1006,3 hPa 0,0 l/m 0 min 0 min 0 W/m 33,5 km/h (5 Bft) 93,48 %
22.02.2016 04:32 10,2 C 10,0 C 8,9 C 90 % 0 lf 1006,2 hPa 0,0 l/m 0 min 0 min 0 W/m 37,7 km/h (5 Bft) 95,74 %
22.02.2016 04:34 10,2 C 10,0 C 8,9 C 90 % 0 lf 1006,2 hPa 0,0 l/m 0 min 0 min 0 W/m 46,0 km/h (6 Bft) 97,87 %
22.02.2016 04:36 10,2 C 10,6 C 8,9 C 90 % 0 lf 1006,2 hPa 0,0 l/m 0 min 0 min 0 W/m 60,7 km/h (7 Bft) 93,62 %
22.02.2016 04:38 10,2 C 10,6 C 8,9 C 90 % 0 lf 1006,1 hPa 0,0 l/m 0 min 0 min 0 W/m 37,7 km/h (5 Bft) 97,87 %
22.02.2016 04:40 10,2 C 10,6 C 8,9 C 90 % 0 lf 1006,2 hPa 0,0 l/m 0 min 0 min 0 W/m 46,0 km/h (6 Bft) 95,74 %
22.02.2016 04:42 10,2 C 10,6 C 8,9 C 90 % 0 lf 1006,2 hPa 0,0 l/m 0 min 0 min 0 W/m 54,4 km/h (7 Bft) 91,30 %
22.02.2016 04:44 10,2 C 10,6 C 8,9 C 90 % 0 lf 1006,2 hPa 0,0 l/m 0 min 0 min 0 W/m 43,9 km/h (6 Bft) 95,74 %
22.02.2016 04:46 10,2 C 10,6 C 8,9 C 90 % 0 lf 1006,1 hPa 0,0 l/m 0 min 0 min 0 W/m 60,7 km/h (7 Bft) 97,87 %
22.02.2016 04:48 10,2 C 10,6 C 8,9 C 90 % 0 lf 1006,1 hPa 0,0 l/m 0 min 0 min 0 W/m 39,7 km/h (6 Bft) 95,74 %
22.02.2016 04:50 10,2 C 10,0 C 8,9 C 90 % 0 lf 1006,1 hPa 0,0 l/m 0 min 0 min 0 W/m 50,2 km/h (7 Bft) 97,87 %
22.02.2016 04:52 10,2 C 10,0 C 8,9 C 90 % 1 lf 1006,1 hPa 0,0 l/m 0 min 2 min 0 W/m 37,7 km/h (5 Bft) 91,49 %
22.02.2016 04:54 10,2 C 10,0 C 8,9 C 90 % 0 lf 1006,2 hPa 0,0 l/m 0 min 0 min 0 W/m 54,4 km/h (7 Bft) 95,65 %
22.02.2016 04:56 10,2 C 10,0 C 8,9 C 90 % 0 lf 1006,2 hPa 0,0 l/m 0 min 0 min 0 W/m 52,3 km/h (7 Bft) 95,74 %
22.02.2016 04:58 10,2 C 10,0 C 8,9 C 90 % 0 lf 1006,1 hPa 0,0 l/m 0 min 0 min 0 W/m 46,0 km/h (6 Bft) 93,62 %
22.02.2016 05:00 10,2 C 10,0 C 8,9 C 90 % 0 lf 1006,1 hPa 0,0 l/m 0 min 0 min 0 W/m 37,7 km/h (5 Bft) 95,74 %
22.02.2016 05:02 10,1 C 10,0 C 8,9 C 90 % 1 lf 1006,1 hPa 0,0 l/m 0 min 0 min 0 W/m 50,2 km/h (7 Bft) 95,74 %
22.02.2016 05:04 10,1 C 10,0 C 8,9 C 90 % 1 lf 1006,2 hPa 0,0 l/m 0 min 0 min 0 W/m 46,0 km/h (6 Bft) 93,62 %
22.02.2016 05:06 10,1 C 10,0 C 8,9 C 91 % 1 lf 1006,2 hPa 0,0 l/m 0 min 0 min 0 W/m 39,7 km/h (6 Bft) 93,48 %
22.02.2016 05:08 10,1 C 10,0 C 8,9 C 91 % 2 lf 1006,2 hPa 0,0 l/m 0 min 2 min 0 W/m 52,3 km/h (7 Bft) 93,62 %
22.02.2016 05:10 10,1 C 10,0 C 8,9 C 91 % 1 lf 1006,1 hPa 0,0 l/m 0 min 0 min 0 W/m 48,1 km/h (6 Bft) 93,62 %
22.02.2016 05:12 10,0 C 10,0 C 8,9 C 91 % 1 lf 1006,2 hPa 0,0 l/m 0 min 0 min 0 W/m 50,2 km/h (7 Bft) 95,74 %
22.02.2016 05:14 10,0 C 10,0 C 8,9 C 91 % 0 lf 1006,1 hPa 0,0 l/m 0 min 0 min 0 W/m 48,1 km/h (6 Bft) 95,74 %
22.02.2016 05:16 10,0 C 10,0 C 8,9 C 91 % 0 lf 1006,1 hPa 0,0 l/m 0 min 0 min 0 W/m 39,7 km/h (6 Bft) 95,74 %
22.02.2016 05:18 10,0 C 10,0 C 8,9 C 91 % 0 lf 1006,0 hPa 0,0 l/m 0 min 0 min 0 W/m 35,6 km/h (5 Bft) 93,48 %
22.02.2016 05:20 10,0 C 10,0 C 8,9 C 91 % 0 lf 1006,1 hPa 0,0 l/m 0 min 0 min 0 W/m 43,9 km/h (6 Bft) 91,49 %
22.02.2016 05:22 10,0 C 10,0 C 8,9 C 91 % 0 lf 1006,2 hPa 0,0 l/m 0 min 0 min 0 W/m 50,2 km/h (7 Bft) 93,62 %
22.02.2016 05:24 10,0 C 10,6 C 8,9 C 91 % 0 lf 1006,1 hPa 0,0 l/m 0 min 0 min 0 W/m 46,0 km/h (6 Bft) 93,62 %
22.02.2016 05:26 10,0 C 10,6 C 8,9 C 91 % 0 lf 1006,1 hPa 0,0 l/m 0 min 0 min 0 W/m 48,1 km/h (6 Bft) 95,74 %
22.02.2016 05:28 10,1 C 10,6 C 8,9 C 91 % 0 lf 1006,2 hPa 0,0 l/m 0 min 0 min 0 W/m 43,9 km/h (6 Bft) 95,65 %
22.02.2016 05:30 10,1 C 10,6 C 8,9 C 91 % 0 lf 1006,2 hPa 0,0 l/m 0 min 0 min 0 W/m 35,6 km/h (5 Bft) 93,62 %
22.02.2016 05:32 10,1 C 10,6 C 8,9 C 90 % 0 lf 1006,1 hPa 0,0 l/m 0 min 0 min 0 W/m 48,1 km/h (6 Bft) 93,62 %
22.02.2016 05:34 10,1 C 10,6 C 8,9 C 90 % 0 lf 1006,2 hPa 0,0 l/m 0 min 0 min 0 W/m 48,1 km/h (6 Bft) 87,23 %
22.02.2016 05:36 10,1 C 10,6 C 8,9 C 90 % 0 lf 1006,1 hPa 0,0 l/m 0 min 0 min 0 W/m 46,0 km/h (6 Bft) 95,74 %
22.02.2016 05:38 10,1 C 10,6 C 8,9 C 90 % 0 lf 1006,1 hPa 0,0 l/m 0 min 0 min 0 W/m 46,0 km/h (6 Bft) 93,62 %
22.02.2016 05:40 10,1 C 10,6 C 8,9 C 90 % 0 lf 1006,1 hPa 0,0 l/m 0 min 0 min 0 W/m 50,2 km/h (7 Bft) 93,48 %
22.02.2016 05:42 10,1 C 10,6 C 8,9 C 90 % 0 lf 1006,2 hPa 0,0 l/m 0 min 0 min 0 W/m 31,4 km/h (5 Bft) 95,74 %
22.02.2016 05:44 10,2 C 10,6 C 8,9 C 90 % 0 lf 1006,2 hPa 0,0 l/m 0 min 0 min 0 W/m 54,4 km/h (7 Bft) 97,87 %
22.02.2016 05:46 10,2 C 10,6 C 8,9 C 90 % 0 lf 1006,2 hPa 0,0 l/m 0 min 0 min 0 W/m 31,4 km/h (5 Bft) 97,87 %
22.02.2016 05:48 10,2 C 10,6 C 8,9 C 90 % 0 lf 1006,1 hPa 0,0 l/m 0 min 0 min 0 W/m 46,0 km/h (6 Bft) 97,87 %
22.02.2016 05:50 10,2 C 10,6 C 8,9 C 90 % 0 lf 1006,1 hPa 0,0 l/m 0 min 0 min 0 W/m 37,7 km/h (5 Bft) 97,87 %
22.02.2016 05:52 10,2 C 10,6 C 8,9 C 90 % 0 lf 1006,1 hPa 0,0 l/m 0 min 0 min 0 W/m 35,6 km/h (5 Bft) 97,83 %
22.02.2016 05:54 10,2 C 10,6 C 8,9 C 90 % 0 lf 1006,1 hPa 0,0 l/m 0 min 0 min 0 W/m 39,7 km/h (6 Bft) 89,36 %
22.02.2016 05:56 10,2 C 10,6 C 8,9 C 89 % 0 lf 1006,0 hPa 0,0 l/m 0 min 0 min 0 W/m 29,3 km/h (5 Bft) 100,00 %
22.02.2016 05:58 10,2 C 10,6 C 8,9 C 89 % 0 lf 1006,1 hPa 0,0 l/m 0 min 0 min 0 W/m 41,8 km/h (6 Bft) 100,00 %
22.02.2016 06:00 10,2 C 10,6 C 8,9 C 89 % 0 lf 1006,0 hPa 0,0 l/m 0 min 0 min 0 W/m 41,8 km/h (6 Bft) 97,87 %
22.02.2016 06:02 10,2 C 10,6 C 8,9 C 89 % 0 lf 1006,1 hPa 0,0 l/m 0 min 2 min 0 W/m 39,7 km/h (6 Bft) 95,74 %
22.02.2016 06:04 10,2 C 10,6 C 8,9 C 89 % 0 lf 1006,1 hPa 0,0 l/m 0 min 0 min 0 W/m 50,2 km/h (7 Bft) 97,87 %
22.02.2016 06:06 10,2 C 10,6 C 8,9 C 89 % 1 lf 1006,1 hPa 0,0 l/m 0 min 0 min 0 W/m 39,7 km/h (6 Bft) 97,87 %
22.02.2016 06:08 10,2 C 10,6 C 8,9 C 89 % 1 lf 1006,1 hPa 0,0 l/m 0 min 0 min 0 W/m 35,6 km/h (5 Bft) 97,87 %
22.02.2016 06:10 10,2 C 10,6 C 8,9 C 89 % 1 lf 1006,2 hPa 0,0 l/m 0 min 0 min 0 W/m 64,9 km/h (8 Bft) 97,87 %
22.02.2016 06:12 10,2 C 10,0 C 8,9 C 89 % 1 lf 1006,1 hPa 0,0 l/m 0 min 0 min 0 W/m 43,9 km/h (6 Bft) 95,74 %
22.02.2016 06:14 10,2 C 10,0 C 8,9 C 89 % 1 lf 1006,2 hPa 0,0 l/m 0 min 0 min 0 W/m 50,2 km/h (7 Bft) 100,00 %
22.02.2016 06:16 10,2 C 10,0 C 8,9 C 89 % 2 lf 1006,1 hPa 0,0 l/m 0 min 0 min 0 W/m 48,1 km/h (6 Bft) 100,00 %
22.02.2016 06:18 10,2 C 10,0 C 8,3 C 90 % 3 lf 1006,1 hPa 0,0 l/m 0 min 2 min 0 W/m 39,7 km/h (6 Bft) 97,87 %
22.02.2016 06:20 10,2 C 10,0 C 8,3 C 90 % 5 lf 1005,9 hPa 0,0 l/m 0 min 0 min 0 W/m 27,2 km/h (4 Bft) 97,87 %
22.02.2016 06:22 10,1 C 10,0 C 8,3 C 90 % 6 lf 1006,1 hPa 0,0 l/m 0 min 0 min 0 W/m 48,1 km/h (6 Bft) 95,74 %
22.02.2016 06:24 10,1 C 9,4 C 8,3 C 90 % 7 lf 1006,0 hPa 0,0 l/m 0 min 0 min 0 W/m 39,7 km/h (6 Bft) 89,36 %
22.02.2016 06:26 10,1 C 9,4 C 8,3 C 90 % 9 lf 1005,9 hPa 0,0 l/m 0 min 2 min 0 W/m 37,7 km/h (5 Bft) 89,13 %
22.02.2016 06:28 10,0 C 9,4 C 8,3 C 90 % 12 lf 1006,0 hPa 0,0 l/m 0 min 2 min 0 W/m 43,9 km/h (6 Bft) 91,49 %
22.02.2016 06:30 10,0 C 9,4 C 8,3 C 91 % 15 lf 1006,0 hPa 0,0 l/m 0 min 2 min 0 W/m 33,5 km/h (5 Bft) 95,74 %
22.02.2016 06:32 9,9 C 9,4 C 7,8 C 91 % 15 lf 1005,9 hPa 0,0 l/m 0 min 2 min 0 W/m 48,1 km/h (6 Bft) 95,74 %
22.02.2016 06:34 9,9 C 9,4 C 7,8 C 91 % 15 lf 1006,0 hPa 0,0 l/m 0 min 2 min 0 W/m 35,6 km/h (5 Bft) 91,49 %
22.02.2016 06:36 9,9 C 9,4 C 7,8 C 91 % 15 lf 1005,9 hPa 0,0 l/m 0 min 2 min 0 W/m 41,8 km/h (6 Bft) 93,62 %
22.02.2016 06:38 9,8 C 9,4 C 7,8 C 91 % 15 lf 1006,0 hPa 0,0 l/m 0 min 2 min 0 W/m 48,1 km/h (6 Bft) 95,65 %
22.02.2016 06:40 9,8 C 9,4 C 7,8 C 91 % 15 lf 1005,9 hPa 0,0 l/m 0 min 2 min 0 W/m 37,7 km/h (5 Bft) 95,74 %
22.02.2016 06:42 9,8 C 9,4 C 7,8 C 92 % 15 lf 1005,9 hPa 0,0 l/m 0 min 2 min 0 W/m 35,6 km/h (5 Bft) 93,62 %
22.02.2016 06:44 9,8 C 9,4 C 7,8 C 92 % 15 lf 1005,9 hPa 0,0 l/m 0 min 2 min 0 W/m 33,5 km/h (5 Bft) 95,74 %
22.02.2016 06:46 9,8 C 9,4 C 7,8 C 92 % 15 lf 1005,9 hPa 0,0 l/m 0 min 2 min 0 W/m 48,1 km/h (6 Bft) 95,74 %
22.02.2016 06:48 9,7 C 9,4 C 7,8 C 92 % 15 lf 1005,9 hPa 0,0 l/m 0 min 2 min 0 W/m 37,7 km/h (5 Bft) 95,74 %
22.02.2016 06:50 9,7 C 9,4 C 7,8 C 92 % 15 lf 1006,0 hPa 0,0 l/m 0 min 2 min 0 W/m 56,5 km/h (7 Bft) 95,65 %
22.02.2016 06:52 9,7 C 9,4 C 7,8 C 92 % 15 lf 1006,1 hPa 0,0 l/m 0 min 2 min 0 W/m 37,7 km/h (5 Bft) 91,49 %
22.02.2016 06:54 9,7 C 9,4 C 7,8 C 92 % 15 lf 1005,9 hPa 0,0 l/m 0 min 2 min 0 W/m 43,9 km/h (6 Bft) 95,74 %
22.02.2016 06:56 9,7 C 9,4 C 7,8 C 92 % 15 lf 1006,0 hPa 0,0 l/m 0 min 2 min 0 W/m 39,7 km/h (6 Bft) 97,87 %
22.02.2016 06:58 9,7 C 9,4 C 7,8 C 92 % 15 lf 1006,0 hPa 0,0 l/m 0 min 2 min 0 W/m 52,3 km/h (7 Bft) 97,87 %
22.02.2016 07:00 9,7 C 9,4 C 7,8 C 92 % 15 lf 1006,1 hPa 0,0 l/m 0 min 2 min 0 W/m 33,5 km/h (5 Bft) 97,87 %
22.02.2016 07:02 9,7 C 9,4 C 7,8 C 92 % 15 lf 1005,9 hPa 0,0 l/m 0 min 0 min 0 W/m 39,7 km/h (6 Bft) 95,65 %
22.02.2016 07:04 9,7 C 10,0 C 8,3 C 92 % 15 lf 1005,7 hPa 0,0 l/m 0 min 2 min 0 W/m 48,1 km/h (6 Bft) 95,74 %
22.02.2016 07:06 9,7 C 10,0 C 8,3 C 92 % 15 lf 1005,7 hPa 0,0 l/m 0 min 2 min 0 W/m 35,6 km/h (5 Bft) 97,87 %
22.02.2016 07:08 9,7 C 10,0 C 8,3 C 92 % 15 lf 1005,8 hPa 0,0 l/m 0 min 0 min 0 W/m 41,8 km/h (6 Bft) 97,87 %
22.02.2016 07:10 9,7 C 10,0 C 8,3 C 92 % 15 lf 1005,6 hPa 0,0 l/m 0 min 0 min 0 W/m 37,7 km/h (5 Bft) 97,87 %
22.02.2016 07:12 9,7 C 10,0 C 8,3 C 92 % 15 lf 1005,8 hPa 0,0 l/m 0 min 0 min 0 W/m 41,8 km/h (6 Bft) 97,87 %
22.02.2016 07:14 9,7 C 10,0 C 8,3 C 92 % 15 lf 1005,8 hPa 0,0 l/m 0 min 0 min 0 W/m 35,6 km/h (5 Bft) 97,83 %
22.02.2016 07:16 9,8 C 10,0 C 8,3 C 92 % 15 lf 1005,8 hPa 0,0 l/m 0 min 0 min 0 W/m 39,7 km/h (6 Bft) 95,74 %
22.02.2016 07:18 9,8 C 10,0 C 8,3 C 92 % 15 lf 1005,7 hPa 0,0 l/m 0 min 0 min 0 W/m 41,8 km/h (6 Bft) 97,87 %
22.02.2016 07:20 9,8 C 10,0 C 8,3 C 92 % 14 lf 1005,6 hPa 0,0 l/m 0 min 0 min 0 W/m 33,5 km/h (5 Bft) 89,36 %
22.02.2016 07:22 9,8 C 10,0 C 8,3 C 92 % 13 lf 1005,6 hPa 0,0 l/m 0 min 2 min 0 W/m 43,9 km/h (6 Bft) 97,87 %
22.02.2016 07:24 9,8 C 10,0 C 8,3 C 92 % 10 lf 1005,6 hPa 0,0 l/m 0 min 0 min 0 W/m 58,6 km/h (7 Bft) 100,00 %
22.02.2016 07:26 9,8 C 10,0 C 8,3 C 92 % 6 lf 1005,6 hPa 0,0 l/m 0 min 0 min 0 W/m 46,0 km/h (6 Bft) 100,00 %
22.02.2016 07:28 9,8 C 10,0 C 8,3 C 92 % 3 lf 1005,6 hPa 0,0 l/m 0 min 0 min 0 W/m 33,5 km/h (5 Bft) 95,74 %
22.02.2016 07:30 9,8 C 10,0 C 8,3 C 92 % 1 lf 1005,6 hPa 0,0 l/m 0 min 0 min 0 W/m 46,0 km/h (6 Bft) 97,87 %
22.02.2016 07:32 9,8 C 10,0 C 8,9 C 92 % 0 lf 1005,6 hPa 0,0 l/m 0 min 0 min 0 W/m 52,3 km/h (7 Bft) 97,87 %
22.02.2016 07:34 9,8 C 10,0 C 8,9 C 92 % 0 lf 1005,7 hPa 0,0 l/m 0 min 0 min 0 W/m 46,0 km/h (6 Bft) 100,00 %
22.02.2016 07:36 9,8 C 10,0 C 8,9 C 92 % 0 lf 1005,6 hPa 0,0 l/m 0 min 0 min 0 W/m 37,7 km/h (5 Bft) 100,00 %
22.02.2016 07:38 9,8 C 10,0 C 8,9 C 92 % 0 lf 1005,7 hPa 0,0 l/m 0 min 0 min 0 W/m 35,6 km/h (5 Bft) 97,83 %
22.02.2016 07:40 9,9 C 10,0 C 8,9 C 92 % 0 lf 1005,6 hPa 0,0 l/m 0 min 0 min 4 W/m 37,7 km/h (5 Bft) 95,74 %
22.02.2016 07:42 9,9 C 10,0 C 8,9 C 92 % 0 lf 1005,6 hPa 0,0 l/m 0 min 0 min 5 W/m 48,1 km/h (6 Bft) 97,87 %
22.02.2016 07:44 9,9 C 10,0 C 8,9 C 92 % 0 lf 1005,6 hPa 0,0 l/m 0 min 0 min 5 W/m 43,9 km/h (6 Bft) 95,74 %
22.02.2016 07:46 9,9 C 10,0 C 8,9 C 92 % 0 lf 1005,6 hPa 0,0 l/m 0 min 0 min 5 W/m 52,3 km/h (7 Bft) 97,87 %
22.02.2016 07:48 9,9 C 10,0 C 8,9 C 91 % 0 lf 1005,7 hPa 0,0 l/m 0 min 0 min 5 W/m 43,9 km/h (6 Bft) 95,65 %
22.02.2016 07:50 9,9 C 10,0 C 8,9 C 91 % 0 lf 1005,8 hPa 0,0 l/m 0 min 0 min 5 W/m 41,8 km/h (6 Bft) 93,62 %
22.02.2016 07:52 9,9 C 10,0 C 8,9 C 91 % 0 lf 1005,9 hPa 0,0 l/m 0 min 0 min 6 W/m 39,7 km/h (6 Bft) 95,74 %
22.02.2016 07:54 9,9 C 10,0 C 8,9 C 91 % 0 lf 1005,8 hPa 0,0 l/m 0 min 0 min 7 W/m 46,0 km/h (6 Bft) 97,87 %
22.02.2016 07:56 9,9 C 10,0 C 8,9 C 91 % 0 lf 1005,8 hPa 0,0 l/m 0 min 0 min 7 W/m 46,0 km/h (6 Bft) 97,87 %
22.02.2016 07:58 9,9 C 10,0 C 8,9 C 91 % 0 lf 1005,8 hPa 0,0 l/m 0 min 0 min 7 W/m 37,7 km/h (5 Bft) 97,87 %
22.02.2016 08:00 9,9 C 10,0 C 8,9 C 91 % 0 lf 1006,0 hPa 0,0 l/m 0 min 0 min 7 W/m 33,5 km/h (5 Bft) 95,65 %
22.02.2016 08:02 10,0 C 10,0 C 8,9 C 91 % 0 lf 1006,0 hPa 0,0 l/m 0 min 0 min 7 W/m 43,9 km/h (6 Bft) 93,62 %
22.02.2016 08:04 9,9 C 10,0 C 8,9 C 91 % 0 lf 1006,0 hPa 0,0 l/m 0 min 0 min 7 W/m 46,0 km/h (6 Bft) 95,74 %
22.02.2016 08:06 10,0 C 10,0 C 8,9 C 91 % 0 lf 1006,0 hPa 0,0 l/m 0 min 0 min 5 W/m 39,7 km/h (6 Bft) 95,74 %
22.02.2016 08:08 10,0 C 10,0 C 8,9 C 91 % 0 lf 1006,0 hPa 0,0 l/m 0 min 0 min 6 W/m 39,7 km/h (6 Bft) 91,49 %
22.02.2016 08:10 10,0 C 10,0 C 8,9 C 91 % 0 lf 1005,8 hPa 0,0 l/m 0 min 0 min 7 W/m 41,8 km/h (6 Bft) 93,62 %
22.02.2016 08:12 10,0 C 10,0 C 8,9 C 91 % 0 lf 1005,8 hPa 0,0 l/m 0 min 0 min 9 W/m 35,6 km/h (5 Bft) 93,48 %
22.02.2016 08:14 10,0 C 10,0 C 8,9 C 91 % 0 lf 1005,8 hPa 0,0 l/m 0 min 0 min 9 W/m 37,7 km/h (5 Bft) 93,62 %
22.02.2016 08:16 10,0 C 10,0 C 8,9 C 91 % 0 lf 1006,0 hPa 0,0 l/m 0 min 0 min 9 W/m 31,4 km/h (5 Bft) 95,74 %
22.02.2016 08:18 10,0 C 10,0 C 8,9 C 91 % 0 lf 1005,9 hPa 0,0 l/m 0 min 0 min 9 W/m 41,8 km/h (6 Bft) 91,49 %
22.02.2016 08:20 10,0 C 10,0 C 8,9 C 91 % 0 lf 1006,0 hPa 0,0 l/m 0 min 0 min 9 W/m 37,7 km/h (5 Bft) 91,49 %
22.02.2016 08:22 10,0 C 10,0 C 8,9 C 91 % 1 lf 1005,9 hPa 0,0 l/m 0 min 0 min 7 W/m 35,6 km/h (5 Bft) 94,74 %
22.02.2016 08:24 10,0 C 10,0 C 8,3 C 91 % 1 lf 1005,9 hPa 0,0 l/m 0 min 0 min 8 W/m 35,6 km/h (5 Bft) 89,36 %
22.02.2016 08:26 10,0 C 10,0 C 8,3 C 91 % 1 lf 1006,0 hPa 0,0 l/m 0 min 0 min 10 W/m 35,6 km/h (5 Bft) 91,49 %
22.02.2016 08:28 9,9 C 10,0 C 8,3 C 91 % 2 lf 1005,9 hPa 0,0 l/m 0 min 0 min 12 W/m 39,7 km/h (6 Bft) 95,65 %
22.02.2016 08:30 9,9 C 10,0 C 8,3 C 91 % 8 lf 1005,9 hPa 0,0 l/m 0 min 2 min 15 W/m 35,6 km/h (5 Bft) 95,74 %
22.02.2016 08:32 9,9 C 9,4 C 8,3 C 91 % 14 lf 1005,8 hPa 0,0 l/m 0 min 2 min 18 W/m 31,4 km/h (5 Bft) 93,62 %
22.02.2016 08:34 9,9 C 9,4 C 8,3 C 91 % 15 lf 1006,0 hPa 0,0 l/m 0 min 2 min 20 W/m 33,5 km/h (5 Bft) 95,74 %
22.02.2016 08:36 9,9 C 9,4 C 7,8 C 92 % 15 lf 1005,9 hPa 0,0 l/m 0 min 2 min 22 W/m 41,8 km/h (6 Bft) 91,49 %
22.02.2016 08:38 9,9 C 9,4 C 7,8 C 92 % 15 lf 1005,9 hPa 0,0 l/m 0 min 2 min 26 W/m 35,6 km/h (5 Bft) 93,62 %
22.02.2016 08:40 9,8 C 8,9 C 7,8 C 92 % 15 lf 1005,9 hPa 0,0 l/m 0 min 2 min 25 W/m 31,4 km/h (5 Bft) 95,65 %
22.02.2016 08:42 9,8 C 8,9 C 7,8 C 92 % 15 lf 1005,7 hPa 0,0 l/m 0 min 2 min 25 W/m 35,6 km/h (5 Bft) 95,74 %
22.02.2016 08:44 9,8 C 8,9 C 7,8 C 92 % 15 lf 1005,9 hPa 0,2 l/m 0 min 2 min 24 W/m 31,4 km/h (5 Bft) 93,62 %
22.02.2016 08:46 9,7 C 8,9 C 7,8 C 93 % 15 lf 1005,9 hPa 0,0 l/m 0 min 2 min 35 W/m 33,5 km/h (5 Bft) 95,74 %
22.02.2016 08:48 9,7 C 8,9 C 7,8 C 93 % 15 lf 1005,8 hPa 0,0 l/m 0 min 2 min 32 W/m 33,5 km/h (5 Bft) 95,74 %
22.02.2016 08:50 9,7 C 8,9 C 7,8 C 93 % 15 lf 1005,8 hPa 0,0 l/m 0 min 2 min 30 W/m 33,5 km/h (5 Bft) 94,83 %
22.02.2016 08:52 9,6 C 8,9 C 7,8 C 93 % 15 lf 1005,7 hPa 0,0 l/m 0 min 2 min 31 W/m 41,8 km/h (6 Bft) 100,00 %
22.02.2016 08:54 9,6 C 8,9 C 7,8 C 93 % 15 lf 1005,9 hPa 0,0 l/m 0 min 2 min 31 W/m 35,6 km/h (5 Bft) 95,74 %
22.02.2016 08:56 9,6 C 8,9 C 7,8 C 93 % 15 lf 1005,8 hPa 0,0 l/m 0 min 2 min 30 W/m 37,7 km/h (5 Bft) 100,00 %
22.02.2016 08:58 9,5 C 8,9 C 7,8 C 94 % 15 lf 1005,9 hPa 0,0 l/m 0 min 2 min 35 W/m 35,6 km/h (5 Bft) 95,74 %
22.02.2016 09:00 9,5 C 8,9 C 7,8 C 94 % 15 lf 1005,8 hPa 0,0 l/m 0 min 2 min 40 W/m 43,9 km/h (6 Bft) 100,00 %
22.02.2016 09:02 9,5 C 8,9 C 7,8 C 94 % 15 lf 1005,8 hPa 0,0 l/m 0 min 2 min 37 W/m 43,9 km/h (6 Bft) 95,65 %
22.02.2016 09:04 9,4 C 8,9 C 7,8 C 94 % 15 lf 1005,8 hPa 0,0 l/m 0 min 2 min 38 W/m 35,6 km/h (5 Bft) 100,00 %
22.02.2016 09:06 9,4 C 8,9 C 7,8 C 94 % 15 lf 1005,8 hPa 0,0 l/m 0 min 2 min 43 W/m 29,3 km/h (5 Bft) 100,00 %
22.02.2016 09:08 9,4 C 8,9 C 7,8 C 94 % 15 lf 1005,8 hPa 0,0 l/m 0 min 0 min 42 W/m 37,7 km/h (5 Bft) 100,00 %
22.02.2016 09:10 9,4 C 8,9 C 7,8 C 94 % 15 lf 1005,8 hPa 0,0 l/m 0 min 2 min 44 W/m 41,8 km/h (6 Bft) 95,74 %
22.02.2016 09:12 9,4 C 8,9 C 7,8 C 95 % 15 lf 1005,8 hPa 0,0 l/m 0 min 2 min 48 W/m 29,3 km/h (5 Bft) 97,87 %
22.02.2016 09:14 9,4 C 8,9 C 7,8 C 95 % 15 lf 1005,7 hPa 0,0 l/m 0 min 2 min 51 W/m 25,1 km/h (4 Bft) 100,00 %
22.02.2016 09:16 9,4 C 8,9 C 7,8 C 95 % 15 lf 1005,7 hPa 0,0 l/m 0 min 2 min 54 W/m 27,2 km/h (4 Bft) 100,00 %
22.02.2016 09:18 9,4 C 8,9 C 7,8 C 95 % 15 lf 1005,7 hPa 0,0 l/m 0 min 2 min 55 W/m 33,5 km/h (5 Bft) 100,00 %
22.02.2016 09:20 9,4 C 8,9 C 7,8 C 95 % 15 lf 1005,7 hPa 0,2 l/m 0 min 2 min 58 W/m 37,7 km/h (5 Bft) 100,00 %
22.02.2016 09:22 9,4 C 9,4 C 7,8 C 95 % 15 lf 1005,7 hPa 0,0 l/m 0 min 2 min 63 W/m 48,1 km/h (6 Bft) 97,14 %
22.02.2016 09:24 9,4 C 8,9 C 7,8 C 95 % 15 lf 1005,6 hPa 0,0 l/m 0 min 0 min 62 W/m 35,6 km/h (5 Bft) 97,87 %
22.02.2016 09:26 9,4 C 8,9 C 7,8 C 95 % 15 lf 1005,6 hPa 0,0 l/m 0 min 2 min 63 W/m 46,0 km/h (6 Bft) 100,00 %
22.02.2016 09:28 9,4 C 9,4 C 7,8 C 95 % 15 lf 1005,6 hPa 0,0 l/m 0 min 2 min 63 W/m 39,7 km/h (6 Bft) 100,00 %
22.02.2016 09:30 9,4 C 9,4 C 7,8 C 95 % 15 lf 1005,6 hPa 0,0 l/m 0 min 2 min 62 W/m 37,7 km/h (5 Bft) 100,00 %
22.02.2016 09:32 9,4 C 9,4 C 7,8 C 96 % 15 lf 1005,6 hPa 0,0 l/m 0 min 2 min 61 W/m 46,0 km/h (6 Bft) 97,87 %
22.02.2016 09:34 9,4 C 9,4 C 7,8 C 96 % 15 lf 1005,6 hPa 0,0 l/m 0 min 0 min 73 W/m 37,7 km/h (5 Bft) 100,00 %
22.02.2016 09:36 9,4 C 9,4 C 8,3 C 96 % 15 lf 1005,6 hPa 0,0 l/m 0 min 0 min 81 W/m 39,7 km/h (6 Bft) 95,74 %
22.02.2016 09:38 9,4 C 9,4 C 8,3 C 96 % 15 lf 1005,5 hPa 0,0 l/m 0 min 0 min 82 W/m 41,8 km/h (6 Bft) 95,65 %
22.02.2016 09:40 9,4 C 9,4 C 8,3 C 96 % 15 lf 1005,5 hPa 0,0 l/m 0 min 0 min 79 W/m 35,6 km/h (5 Bft) 100,00 %
22.02.2016 09:42 9,4 C 9,4 C 8,3 C 96 % 15 lf 1005,5 hPa 0,0 l/m 0 min 2 min 85 W/m 50,2 km/h (7 Bft) 100,00 %
22.02.2016 09:44 9,4 C 9,4 C 8,3 C 96 % 15 lf 1005,5 hPa 0,0 l/m 0 min 0 min 91 W/m 39,7 km/h (6 Bft) 100,00 %
22.02.2016 09:46 9,4 C 9,4 C 8,3 C 96 % 15 lf 1005,4 hPa 0,0 l/m 0 min 0 min 108 W/m 35,6 km/h (5 Bft) 100,00 %
22.02.2016 09:48 9,5 C 9,4 C 8,3 C 96 % 15 lf 1005,4 hPa 0,0 l/m 0 min 0 min 112 W/m 39,7 km/h (6 Bft) 97,87 %
22.02.2016 09:50 9,5 C 9,4 C 8,3 C 96 % 15 lf 1005,3 hPa 0,0 l/m 0 min 0 min 115 W/m 46,0 km/h (6 Bft) 95,65 %
22.02.2016 09:52 9,5 C 9,4 C 8,3 C 96 % 15 lf 1005,4 hPa 0,0 l/m 0 min 0 min 106 W/m 54,4 km/h (7 Bft) 97,87 %
22.02.2016 09:54 9,5 C 9,4 C 8,3 C 96 % 15 lf 1005,4 hPa 0,0 l/m 0 min 0 min 100 W/m 48,1 km/h (6 Bft) 95,74 %
22.02.2016 09:56 9,6 C 9,4 C 8,3 C 96 % 15 lf 1005,4 hPa 0,0 l/m 0 min 0 min 97 W/m 33,5 km/h (5 Bft) 95,74 %
22.02.2016 09:58 9,6 C 9,4 C 8,3 C 96 % 15 lf 1005,4 hPa 0,0 l/m 0 min 0 min 87 W/m 41,8 km/h (6 Bft) 97,87 %
22.02.2016 10:00 9,6 C 9,4 C 8,3 C 96 % 15 lf 1005,2 hPa 0,0 l/m 0 min 0 min 94 W/m 37,7 km/h (5 Bft) 100,00 %
22.02.2016 10:02 9,6 C 10,0 C 8,3 C 96 % 15 lf 1005,3 hPa 0,0 l/m 0 min 0 min 105 W/m 29,3 km/h (5 Bft) 100,00 %
22.02.2016 10:04 9,6 C 10,0 C 8,3 C 96 % 15 lf 1005,3 hPa 0,0 l/m 0 min 0 min 124 W/m 41,8 km/h (6 Bft) 97,87 %
22.02.2016 10:06 9,6 C 10,0 C 8,3 C 96 % 15 lf 1005,4 hPa 0,0 l/m 0 min 0 min 131 W/m 52,3 km/h (7 Bft) 95,74 %
22.02.2016 10:08 9,7 C 10,0 C 8,3 C 96 % 15 lf 1005,3 hPa 0,0 l/m 0 min 0 min 119 W/m 41,8 km/h (6 Bft) 95,74 %
22.02.2016 10:10 9,7 C 10,0 C 8,9 C 96 % 15 lf 1005,4 hPa 0,0 l/m 0 min 0 min 121 W/m 31,4 km/h (5 Bft) 91,49 %
22.02.2016 10:12 9,7 C 10,0 C 8,9 C 96 % 15 lf 1005,3 hPa 0,0 l/m 0 min 0 min 129 W/m 39,7 km/h (6 Bft) 95,74 %
22.02.2016 10:14 9,8 C 10,0 C 8,9 C 96 % 15 lf 1005,3 hPa 0,0 l/m 0 min 0 min 133 W/m 37,7 km/h (5 Bft) 93,48 %
22.02.2016 10:16 9,8 C 10,0 C 8,9 C 96 % 15 lf 1005,2 hPa 0,0 l/m 0 min 0 min 137 W/m 43,9 km/h (6 Bft) 94,44 %
22.02.2016 10:18 9,8 C 10,0 C 8,9 C 96 % 15 lf 1005,3 hPa 0,0 l/m 0 min 0 min 127 W/m 50,2 km/h (7 Bft) 95,74 %
22.02.2016 10:20 9,8 C 10,0 C 8,9 C 96 % 15 lf 1005,3 hPa 0,0 l/m 0 min 0 min 114 W/m 41,8 km/h (6 Bft) 93,48 %
22.02.2016 10:22 9,9 C 10,0 C 8,9 C 96 % 15 lf 1005,3 hPa 0,0 l/m 0 min 0 min 98 W/m 41,8 km/h (6 Bft) 95,74 %
22.02.2016 10:24 9,9 C 10,0 C 8,9 C 96 % 15 lf 1005,3 hPa 0,0 l/m 0 min 0 min 89 W/m 37,7 km/h (5 Bft) 91,49 %
22.02.2016 10:26 9,9 C 10,0 C 8,9 C 96 % 15 lf 1005,2 hPa 0,0 l/m 0 min 0 min 81 W/m 39,7 km/h (6 Bft) 91,49 %
22.02.2016 10:28 9,9 C 10,0 C 8,9 C 96 % 15 lf 1005,4 hPa 0,0 l/m 0 min 0 min 68 W/m 39,7 km/h (6 Bft) 91,49 %
22.02.2016 10:30 9,9 C 10,0 C 8,9 C 96 % 15 lf 1005,4 hPa 0,0 l/m 0 min 0 min 56 W/m 35,6 km/h (5 Bft) 93,62 %
22.02.2016 10:32 9,9 C 10,0 C 8,9 C 95 % 15 lf 1005,4 hPa 0,0 l/m 0 min 0 min 48 W/m 35,6 km/h (5 Bft) 91,49 %
22.02.2016 10:34 9,9 C 9,4 C 8,9 C 95 % 15 lf 1005,4 hPa 0,0 l/m 0 min 0 min 44 W/m 37,7 km/h (5 Bft) 93,48 %
22.02.2016 10:36 9,9 C 9,4 C 8,3 C 95 % 15 lf 1005,2 hPa 0,0 l/m 0 min 0 min 40 W/m 43,9 km/h (6 Bft) 91,49 %
22.02.2016 10:38 9,9 C 9,4 C 8,3 C 95 % 15 lf 1005,4 hPa 0,0 l/m 0 min 2 min 45 W/m 33,5 km/h (5 Bft) 93,62 %
22.02.2016 10:40 9,9 C 9,4 C 8,3 C 95 % 15 lf 1005,4 hPa 0,0 l/m 0 min 0 min 50 W/m 29,3 km/h (5 Bft) 95,74 %
22.02.2016 10:42 9,9 C 9,4 C 8,3 C 95 % 15 lf 1005,4 hPa 0,0 l/m 0 min 2 min 48 W/m 37,7 km/h (5 Bft) 93,62 %
22.02.2016 10:44 9,9 C 9,4 C 8,3 C 95 % 15 lf 1005,4 hPa 0,0 l/m 0 min 2 min 53 W/m 33,5 km/h (5 Bft) 91,30 %
22.02.2016 10:46 9,8 C 9,4 C 8,3 C 95 % 15 lf 1005,4 hPa 0,0 l/m 0 min 2 min 57 W/m 31,4 km/h (5 Bft) 89,36 %
22.02.2016 10:48 9,8 C 9,4 C 8,3 C 95 % 15 lf 1005,4 hPa 0,0 l/m 0 min 2 min 77 W/m 31,4 km/h (5 Bft) 95,74 %
22.02.2016 10:50 9,8 C 9,4 C 8,3 C 95 % 15 lf 1005,4 hPa 0,0 l/m 0 min 2 min 89 W/m 35,6 km/h (5 Bft) 93,62 %
22.02.2016 10:52 9,7 C 9,4 C 8,3 C 95 % 15 lf 1005,4 hPa 0,0 l/m 0 min 2 min 76 W/m 48,1 km/h (6 Bft) 95,74 %
22.02.2016 10:54 9,7 C 9,4 C 8,3 C 95 % 15 lf 1005,5 hPa 0,0 l/m 0 min 2 min 79 W/m 39,7 km/h (6 Bft) 93,62 %
22.02.2016 10:56 9,7 C 9,4 C 8,3 C 95 % 15 lf 1005,6 hPa 0,0 l/m 0 min 2 min 75 W/m 37,7 km/h (5 Bft) 93,48 %
22.02.2016 10:58 9,7 C 9,4 C 8,3 C 95 % 15 lf 1005,5 hPa 0,0 l/m 0 min 2 min 77 W/m 41,8 km/h (6 Bft) 93,62 %
22.02.2016 11:00 9,7 C 9,4 C 8,3 C 95 % 15 lf 1005,5 hPa 0,0 l/m 0 min 2 min 78 W/m 29,3 km/h (5 Bft) 91,49 %
22.02.2016 11:02 9,7 C 9,4 C 8,3 C 95 % 15 lf 1005,6 hPa 0,0 l/m 0 min 2 min 92 W/m 29,3 km/h (5 Bft) 91,49 %
22.02.2016 11:04 9,6 C 9,4 C 8,3 C 95 % 15 lf 1005,5 hPa 0,2 l/m 0 min 2 min 96 W/m 39,7 km/h (6 Bft) 93,62 %
22.02.2016 11:06 9,6 C 9,4 C 8,3 C 95 % 15 lf 1005,5 hPa 0,0 l/m 0 min 2 min 96 W/m 39,7 km/h (6 Bft) 91,49 %
22.02.2016 11:08 9,6 C 9,4 C 8,3 C 95 % 15 lf 1005,5 hPa 0,0 l/m 0 min 2 min 101 W/m 35,6 km/h (5 Bft) 91,30 %
22.02.2016 11:10 9,6 C 9,4 C 8,3 C 95 % 15 lf 1005,5 hPa 0,0 l/m 0 min 2 min 110 W/m 37,7 km/h (5 Bft) 93,62 %
22.02.2016 11:12 9,6 C 9,4 C 8,3 C 95 % 15 lf 1005,5 hPa 0,0 l/m 0 min 2 min 113 W/m 46,0 km/h (6 Bft) 87,23 %
22.02.2016 11:14 9,6 C 9,4 C 8,3 C 95 % 15 lf 1005,5 hPa 0,0 l/m 0 min 2 min 108 W/m 37,7 km/h (5 Bft) 91,49 %
22.02.2016 11:16 9,6 C 9,4 C 8,3 C 95 % 15 lf 1005,5 hPa 0,0 l/m 0 min 2 min 114 W/m 31,4 km/h (5 Bft) 95,74 %
22.02.2016 11:18 9,6 C 9,4 C 8,3 C 95 % 15 lf 1005,5 hPa 0,0 l/m 0 min 2 min 107 W/m 35,6 km/h (5 Bft) 91,49 %
22.02.2016 11:20 9,6 C 9,4 C 8,3 C 95 % 15 lf 1005,6 hPa 0,0 l/m 0 min 2 min 117 W/m 33,5 km/h (5 Bft) 97,83 %
22.02.2016 11:22 9,6 C 9,4 C 8,3 C 96 % 15 lf 1005,5 hPa 0,0 l/m 0 min 2 min 129 W/m 41,8 km/h (6 Bft) 93,62 %
22.02.2016 11:24 9,6 C 9,4 C 8,3 C 96 % 15 lf 1005,5 hPa 0,0 l/m 0 min 2 min 123 W/m 46,0 km/h (6 Bft) 93,62 %
22.02.2016 11:26 9,6 C 9,4 C 8,3 C 96 % 15 lf 1005,5 hPa 0,0 l/m 0 min 2 min 121 W/m 39,7 km/h (6 Bft) 97,87 %
22.02.2016 11:28 9,6 C 9,4 C 8,3 C 96 % 15 lf 1005,6 hPa 0,0 l/m 0 min 2 min 129 W/m 46,0 km/h (6 Bft) 97,87 %
22.02.2016 11:30 9,6 C 9,4 C 8,3 C 96 % 15 lf 1005,5 hPa 0,0 l/m 0 min 2 min 135 W/m 35,6 km/h (5 Bft) 93,62 %
22.02.2016 11:32 9,6 C 9,4 C 8,3 C 96 % 15 lf 1005,5 hPa 0,2 l/m 0 min 2 min 114 W/m 48,1 km/h (6 Bft) 95,65 %
22.02.2016 11:34 9,6 C 9,4 C 8,3 C 96 % 15 lf 1005,6 hPa 0,0 l/m 0 min 2 min 115 W/m 48,1 km/h (6 Bft) 95,74 %
22.02.2016 11:36 9,6 C 9,4 C 8,3 C 96 % 15 lf 1005,6 hPa 0,0 l/m 0 min 2 min 111 W/m 33,5 km/h (5 Bft) 93,62 %
22.02.2016 11:38 9,6 C 9,4 C 8,3 C 96 % 15 lf 1005,5 hPa 0,0 l/m 0 min 2 min 107 W/m 39,7 km/h (6 Bft) 97,87 %
22.02.2016 11:40 9,7 C 9,4 C 8,3 C 96 % 15 lf 1005,5 hPa 0,0 l/m 0 min 2 min 98 W/m 35,6 km/h (5 Bft) 97,87 %
22.02.2016 11:42 9,7 C 9,4 C 8,3 C 96 % 15 lf 1005,5 hPa 0,0 l/m 0 min 2 min 99 W/m 50,2 km/h (7 Bft) 95,65 %
22.02.2016 11:44 9,6 C 9,4 C 8,3 C 96 % 15 lf 1005,6 hPa 0,0 l/m 0 min 2 min 113 W/m 39,7 km/h (6 Bft) 97,87 %
22.02.2016 11:46 9,7 C 9,4 C 8,3 C 96 % 15 lf 1005,5 hPa 0,0 l/m 0 min 2 min 103 W/m 41,8 km/h (6 Bft) 100,00 %
22.02.2016 11:48 9,7 C 9,4 C 8,3 C 96 % 15 lf 1005,6 hPa 0,0 l/m 0 min 2 min 134 W/m 35,6 km/h (5 Bft) 100,00 %
22.02.2016 11:50 9,7 C 9,4 C 8,3 C 96 % 15 lf 1005,5 hPa 0,0 l/m 0 min 2 min 142 W/m 39,7 km/h (6 Bft) 100,00 %
22.02.2016 11:52 9,7 C 9,4 C 8,3 C 96 % 15 lf 1005,6 hPa 0,0 l/m 0 min 2 min 117 W/m 46,0 km/h (6 Bft) 97,87 %
22.02.2016 11:54 9,7 C 9,4 C 8,3 C 96 % 15 lf 1005,7 hPa 0,0 l/m 0 min 2 min 108 W/m 37,7 km/h (5 Bft) 97,83 %
22.02.2016 11:56 9,7 C 9,4 C 8,3 C 96 % 15 lf 1005,7 hPa 0,0 l/m 0 min 2 min 102 W/m 39,7 km/h (6 Bft) 97,87 %
22.02.2016 11:58 9,7 C 9,4 C 8,3 C 96 % 15 lf 1005,7 hPa 0,0 l/m 0 min 2 min 75 W/m 41,8 km/h (6 Bft) 97,87 %
22.02.2016 12:00 9,7 C 9,4 C 8,3 C 96 % 15 lf 1005,7 hPa 0,0 l/m 0 min 2 min 69 W/m 31,4 km/h (5 Bft) 97,87 %
22.02.2016 12:02 9,7 C 9,4 C 8,3 C 96 % 15 lf 1005,9 hPa 0,0 l/m 0 min 2 min 54 W/m 25,1 km/h (4 Bft) 91,49 %
22.02.2016 12:04 9,7 C 9,4 C 8,3 C 96 % 15 lf 1005,9 hPa 0,2 l/m 0 min 2 min 40 W/m 23,0 km/h (4 Bft) 97,92 %
22.02.2016 12:06 9,7 C 8,9 C 7,8 C 96 % 15 lf 1005,9 hPa 0,0 l/m 0 min 2 min 30 W/m 14,6 km/h (3 Bft) 95,65 %
22.02.2016 12:08 9,6 C 8,3 C 7,2 C 96 % 15 lf 1006,0 hPa 0,0 l/m 0 min 2 min 25 W/m 10,5 km/h (2 Bft) 97,87 %
22.02.2016 12:10 9,5 C 8,3 C 6,7 C 96 % 15 lf 1006,1 hPa 0,0 l/m 0 min 2 min 26 W/m 10,5 km/h (2 Bft) 93,62 %
22.02.2016 12:12 9,3 C 7,8 C 6,7 C 96 % 15 lf 1006,0 hPa 0,0 l/m 0 min 2 min 29 W/m 23,0 km/h (4 Bft) 95,74 %
22.02.2016 12:14 9,1 C 7,2 C 6,1 C 96 % 15 lf 1006,0 hPa 0,0 l/m 0 min 2 min 39 W/m 25,1 km/h (4 Bft) 97,87 %
22.02.2016 12:16 8,8 C 7,2 C 6,1 C 95 % 14 lf 1006,1 hPa 0,2 l/m 0 min 2 min 48 W/m 23,0 km/h (4 Bft) 97,87 %
22.02.2016 12:18 8,6 C 7,2 C 6,1 C 95 % 15 lf 1006,0 hPa 0,0 l/m 0 min 2 min 63 W/m 27,2 km/h (4 Bft) 97,83 %
22.02.2016 12:20 8,4 C 7,2 C 6,1 C 95 % 14 lf 1006,1 hPa 0,2 l/m 0 min 2 min 55 W/m 20,9 km/h (4 Bft) 95,74 %
22.02.2016 12:22 8,3 C 7,2 C 6,1 C 95 % 15 lf 1006,2 hPa 0,0 l/m 0 min 2 min 56 W/m 16,7 km/h (3 Bft) 97,87 %
22.02.2016 12:24 8,2 C 7,2 C 6,1 C 95 % 15 lf 1006,1 hPa 0,0 l/m 0 min 2 min 51 W/m 12,6 km/h (3 Bft) 97,87 %
22.02.2016 12:26 8,1 C 7,2 C 6,1 C 95 % 15 lf 1006,1 hPa 0,2 l/m 0 min 2 min 58 W/m 12,6 km/h (3 Bft) 95,74 %
22.02.2016 12:28 8,0 C 7,2 C 6,1 C 95 % 15 lf 1006,2 hPa 0,2 l/m 0 min 2 min 49 W/m 12,6 km/h (3 Bft) 95,74 %
22.02.2016 12:30 7,9 C 7,2 C 6,1 C 95 % 15 lf 1006,2 hPa 0,0 l/m 0 min 2 min 46 W/m 8,4 km/h (2 Bft) 93,48 %
22.02.2016 12:32 7,9 C 7,2 C 6,1 C 95 % 15 lf 1006,3 hPa 0,2 l/m 0 min 2 min 45 W/m 16,7 km/h (3 Bft) 100,00 %
22.02.2016 12:34 7,8 C 7,2 C 6,1 C 95 % 15 lf 1006,3 hPa 0,2 l/m 0 min 2 min 51 W/m 14,6 km/h (3 Bft) 97,87 %
22.02.2016 12:36 7,8 C 7,2 C 6,1 C 95 % 15 lf 1006,3 hPa 0,2 l/m 0 min 2 min 55 W/m 12,6 km/h (3 Bft) 100,00 %
22.02.2016 12:38 7,7 C 7,2 C 6,1 C 95 % 15 lf 1006,2 hPa 0,4 l/m 0 min 2 min 59 W/m 18,8 km/h (3 Bft) 100,00 %
22.02.2016 12:40 7,7 C 7,2 C 6,1 C 95 % 15 lf 1006,3 hPa 0,2 l/m 0 min 2 min 52 W/m 18,8 km/h (3 Bft) 97,83 %
22.02.2016 12:42 7,7 C 7,2 C 6,1 C 95 % 15 lf 1006,2 hPa 0,2 l/m 0 min 2 min 60 W/m 18,8 km/h (3 Bft) 100,00 %
22.02.2016 12:44 7,6 C 7,2 C 6,1 C 95 % 15 lf 1006,1 hPa 0,0 l/m 0 min 2 min 64 W/m 14,6 km/h (3 Bft) 100,00 %
22.02.2016 12:46 7,6 C 7,2 C 6,1 C 95 % 15 lf 1006,1 hPa 0,2 l/m 0 min 2 min 69 W/m 14,6 km/h (3 Bft) 100,00 %
22.02.2016 12:48 7,6 C 7,2 C 6,1 C 95 % 15 lf 1006,1 hPa 0,0 l/m 0 min 2 min 69 W/m 14,6 km/h (3 Bft) 100,00 %
22.02.2016 12:50 7,5 C 7,2 C 6,1 C 95 % 15 lf 1006,2 hPa 0,2 l/m 0 min 0 min 63 W/m 18,8 km/h (3 Bft) 100,00 %
22.02.2016 12:52 7,5 C 7,2 C 6,1 C 95 % 15 lf 1006,1 hPa 0,0 l/m 0 min 0 min 70 W/m 20,9 km/h (4 Bft) 97,83 %
22.02.2016 12:54 7,4 C 7,2 C 6,1 C 95 % 15 lf 1006,2 hPa 0,0 l/m 0 min 2 min 72 W/m 16,7 km/h (3 Bft) 100,00 %
22.02.2016 12:56 7,4 C 7,2 C 6,1 C 95 % 15 lf 1006,1 hPa 0,0 l/m 0 min 2 min 72 W/m 14,6 km/h (3 Bft) 97,87 %
22.02.2016 12:58 7,4 C 7,2 C 6,1 C 95 % 15 lf 1006,2 hPa 0,0 l/m 0 min 2 min 69 W/m 16,7 km/h (3 Bft) 100,00 %
22.02.2016 13:00 7,4 C 7,2 C 6,1 C 95 % 15 lf 1006,1 hPa 0,2 l/m 0 min 2 min 78 W/m 10,5 km/h (2 Bft) 93,62 %
22.02.2016 13:02 7,4 C 7,2 C 6,1 C 96 % 15 lf 1006,2 hPa 0,0 l/m 0 min 2 min 86 W/m 16,7 km/h (3 Bft) 95,74 %
22.02.2016 13:04 7,3 C 7,2 C 6,1 C 96 % 15 lf 1006,1 hPa 0,0 l/m 0 min 2 min 90 W/m 18,8 km/h (3 Bft) 100,00 %
22.02.2016 13:06 7,3 C 7,2 C 6,1 C 96 % 15 lf 1006,2 hPa 0,0 l/m 0 min 2 min 88 W/m 16,7 km/h (3 Bft) 97,87 %
22.02.2016 13:08 7,3 C 7,2 C 6,1 C 96 % 15 lf 1006,2 hPa 0,0 l/m 0 min 2 min 78 W/m 18,8 km/h (3 Bft) 97,87 %
22.02.2016 13:10 7,3 C 7,2 C 6,1 C 96 % 15 lf 1006,2 hPa 0,0 l/m 0 min 2 min 82 W/m 12,6 km/h (3 Bft) 97,87 %
22.02.2016 13:12 7,3 C 7,2 C 6,1 C 96 % 15 lf 1006,1 hPa 0,2 l/m 0 min 2 min 83 W/m 14,6 km/h (3 Bft) 100,00 %
22.02.2016 13:14 7,3 C 7,2 C 6,1 C 96 % 15 lf 1006,3 hPa 0,0 l/m 0 min 2 min 72 W/m 12,6 km/h (3 Bft) 100,00 %
22.02.2016 13:16 7,2 C 7,2 C 6,1 C 96 % 15 lf 1006,3 hPa 0,0 l/m 0 min 0 min 76 W/m 18,8 km/h (3 Bft) 97,83 %
22.02.2016 13:18 7,2 C 7,2 C 6,1 C 96 % 15 lf 1006,2 hPa 0,0 l/m 0 min 0 min 88 W/m 18,8 km/h (3 Bft) 97,87 %
22.02.2016 13:20 7,2 C 7,2 C 6,1 C 96 % 15 lf 1006,3 hPa 0,0 l/m 0 min 0 min 96 W/m 16,7 km/h (3 Bft) 97,87 %
22.02.2016 13:22 7,2 C 7,2 C 6,1 C 96 % 15 lf 1006,2 hPa 0,0 l/m 0 min 2 min 91 W/m 14,6 km/h (3 Bft) 95,74 %
22.02.2016 13:24 7,2 C 7,2 C 6,1 C 96 % 15 lf 1006,2 hPa 0,0 l/m 0 min 2 min 94 W/m 14,6 km/h (3 Bft) 95,74 %
22.02.2016 13:26 7,1 C 7,2 C 6,1 C 96 % 15 lf 1006,2 hPa 0,0 l/m 0 min 0 min 97 W/m 12,6 km/h (3 Bft) 95,74 %
22.02.2016 13:28 7,1 C 7,2 C 5,6 C 96 % 15 lf 1006,3 hPa 0,0 l/m 0 min 2 min 101 W/m 14,6 km/h (3 Bft) 97,83 %
22.02.2016 13:30 7,1 C 7,2 C 5,6 C 96 % 15 lf 1006,2 hPa 0,2 l/m 0 min 2 min 111 W/m 12,6 km/h (3 Bft) 91,49 %
22.02.2016 13:32 7,1 C 7,2 C 6,1 C 96 % 15 lf 1006,3 hPa 0,0 l/m 0 min 2 min 106 W/m 10,5 km/h (2 Bft) 97,87 %
22.02.2016 13:34 7,1 C 7,2 C 6,1 C 96 % 15 lf 1006,3 hPa 0,0 l/m 0 min 2 min 100 W/m 6,3 km/h (2 Bft) 95,74 %
22.02.2016 13:36 7,1 C 7,2 C 6,1 C 96 % 15 lf 1006,3 hPa 0,0 l/m 0 min 0 min 88 W/m 6,3 km/h (2 Bft) 97,87 %
22.02.2016 13:38 7,1 C 7,2 C 6,1 C 96 % 15 lf 1006,2 hPa 0,0 l/m 0 min 0 min 96 W/m 10,5 km/h (2 Bft) 93,62 %
22.02.2016 13:40 7,1 C 7,2 C 6,1 C 96 % 15 lf 1006,3 hPa 0,0 l/m 0 min 0 min 96 W/m 16,7 km/h (3 Bft) 95,65 %
22.02.2016 13:42 7,1 C 7,2 C 6,1 C 96 % 15 lf 1006,3 hPa 0,0 l/m 0 min 0 min 91 W/m 10,5 km/h (2 Bft) 97,87 %
22.02.2016 13:44 7,1 C 7,2 C 6,1 C 96 % 15 lf 1006,4 hPa 0,2 l/m 0 min 0 min 88 W/m 8,4 km/h (2 Bft) 97,87 %
22.02.2016 13:46 7,0 C 7,2 C 6,1 C 96 % 15 lf 1006,4 hPa 0,0 l/m 0 min 0 min 89 W/m 8,4 km/h (2 Bft) 94,12 %
22.02.2016 13:48 7,1 C 7,2 C 6,1 C 96 % 15 lf 1006,2 hPa 0,0 l/m 0 min 0 min 88 W/m 10,5 km/h (2 Bft) 95,74 %
22.02.2016 13:50 7,0 C 7,2 C 6,1 C 96 % 15 lf 1006,2 hPa 0,0 l/m 0 min 0 min 97 W/m 10,5 km/h (2 Bft) 85,11 %
22.02.2016 13:52 7,0 C 7,2 C 6,1 C 96 % 15 lf 1006,2 hPa 0,0 l/m 0 min 0 min 90 W/m 14,6 km/h (3 Bft) 91,30 %
22.02.2016 13:54 7,1 C 7,2 C 6,1 C 96 % 15 lf 1006,2 hPa 0,0 l/m 0 min 0 min 81 W/m 10,5 km/h (2 Bft) 91,49 %
22.02.2016 13:56 7,1 C 7,2 C 6,1 C 96 % 15 lf 1006,2 hPa 0,0 l/m 0 min 2 min 77 W/m 10,5 km/h (2 Bft) 91,49 %
22.02.2016 13:58 7,0 C 7,2 C 5,6 C 96 % 15 lf 1006,3 hPa 0,2 l/m 0 min 0 min 76 W/m 8,4 km/h (2 Bft) 93,62 %
22.02.2016 14:00 7,0 C 7,2 C 6,1 C 96 % 15 lf 1006,3 hPa 0,0 l/m 0 min 0 min 72 W/m 10,5 km/h (2 Bft) 93,62 %
22.02.2016 14:02 7,0 C 7,2 C 6,1 C 96 % 15 lf 1006,4 hPa 0,0 l/m 0 min 0 min 78 W/m 8,4 km/h (2 Bft) 93,62 %
22.02.2016 14:04 7,0 C 7,2 C 6,1 C 96 % 15 lf 1006,3 hPa 0,0 l/m 0 min 2 min 89 W/m 8,4 km/h (2 Bft) 93,48 %
22.02.2016 14:06 7,1 C 7,2 C 6,1 C 96 % 15 lf 1006,3 hPa 0,0 l/m 0 min 0 min 91 W/m 8,4 km/h (2 Bft) 93,62 %
22.02.2016 14:08 7,1 C 7,2 C 6,1 C 96 % 15 lf 1006,3 hPa 0,0 l/m 0 min 0 min 85 W/m 6,3 km/h (2 Bft) 89,36 %
22.02.2016 14:10 7,1 C 7,2 C 6,1 C 96 % 15 lf 1006,3 hPa 0,2 l/m 0 min 0 min 78 W/m 8,4 km/h (2 Bft) 93,62 %
22.02.2016 14:12 7,1 C 7,8 C 6,1 C 96 % 15 lf 1006,3 hPa 0,0 l/m 0 min 0 min 76 W/m 8,4 km/h (2 Bft) 93,62 %
22.02.2016 14:14 7,1 C 7,2 C 6,1 C 96 % 15 lf 1006,4 hPa 0,0 l/m 0 min 0 min 73 W/m 12,6 km/h (3 Bft) 93,62 %
22.02.2016 14:16 7,1 C 7,2 C 6,1 C 96 % 15 lf 1006,3 hPa 0,0 l/m 0 min 2 min 71 W/m 12,6 km/h (3 Bft) 93,48 %
22.02.2016 14:18 7,1 C 7,2 C 6,1 C 96 % 15 lf 1006,4 hPa 0,0 l/m 0 min 2 min 70 W/m 8,4 km/h (2 Bft) 91,49 %
22.02.2016 14:20 7,1 C 7,2 C 6,1 C 96 % 15 lf 1006,3 hPa 0,0 l/m 0 min 0 min 64 W/m 12,6 km/h (3 Bft) 91,49 %
22.02.2016 14:22 7,2 C 7,2 C 6,1 C 97 % 15 lf 1006,4 hPa 0,2 l/m 0 min 2 min 59 W/m 20,9 km/h (4 Bft) 95,74 %
22.02.2016 14:24 7,2 C 7,2 C 6,1 C 97 % 15 lf 1006,3 hPa 0,0 l/m 0 min 2 min 64 W/m 12,6 km/h (3 Bft) 95,74 %
22.02.2016 14:26 7,2 C 7,2 C 6,1 C 97 % 15 lf 1006,4 hPa 0,0 l/m 0 min 0 min 81 W/m 14,6 km/h (3 Bft) 95,65 %
22.02.2016 14:28 7,1 C 7,2 C 6,1 C 97 % 15 lf 1006,4 hPa 0,0 l/m 0 min 0 min 86 W/m 20,9 km/h (4 Bft) 95,74 %
22.02.2016 14:30 7,1 C 7,2 C 6,1 C 96 % 15 lf 1006,4 hPa 0,0 l/m 0 min 0 min 88 W/m 23,0 km/h (4 Bft) 93,62 %
22.02.2016 14:32 7,1 C 7,2 C 5,6 C 96 % 15 lf 1006,4 hPa 0,0 l/m 0 min 0 min 87 W/m 20,9 km/h (4 Bft) 95,74 %
22.02.2016 14:34 7,1 C 7,2 C 5,6 C 96 % 15 lf 1006,4 hPa 0,2 l/m 0 min 0 min 86 W/m 20,9 km/h (4 Bft) 95,74 %
22.02.2016 14:36 7,0 C 6,7 C 5,6 C 96 % 15 lf 1006,4 hPa 0,0 l/m 0 min 0 min 90 W/m 23,0 km/h (4 Bft) 93,62 %
22.02.2016 14:38 6,9 C 6,7 C 5,6 C 96 % 15 lf 1006,4 hPa 0,0 l/m 0 min 0 min 91 W/m 16,7 km/h (3 Bft) 95,65 %
22.02.2016 14:40 6,9 C 6,7 C 5,6 C 97 % 15 lf 1006,5 hPa 0,0 l/m 0 min 0 min 96 W/m 18,8 km/h (3 Bft) 97,87 %
22.02.2016 14:42 6,9 C 7,2 C 5,6 C 97 % 15 lf 1006,4 hPa 0,0 l/m 0 min 0 min 99 W/m 14,6 km/h (3 Bft) 93,62 %
22.02.2016 14:44 6,9 C 7,2 C 5,6 C 97 % 15 lf 1006,5 hPa 0,0 l/m 0 min 0 min 102 W/m 12,6 km/h (3 Bft) 97,87 %
22.02.2016 14:46 6,8 C 7,2 C 5,6 C 97 % 15 lf 1006,5 hPa 0,0 l/m 0 min 0 min 110 W/m 8,4 km/h (2 Bft) 95,74 %
22.02.2016 14:48 6,8 C 7,2 C 6,1 C 97 % 15 lf 1006,5 hPa 0,0 l/m 0 min 0 min 119 W/m 12,6 km/h (3 Bft) 95,74 %
22.02.2016 14:50 6,8 C 7,2 C 6,1 C 97 % 15 lf 1006,4 hPa 0,0 l/m 0 min 0 min 122 W/m 18,8 km/h (3 Bft) 97,83 %
22.02.2016 14:52 6,8 C 7,2 C 6,1 C 97 % 15 lf 1006,4 hPa 0,0 l/m 0 min 0 min 132 W/m 12,6 km/h (3 Bft) 95,74 %
22.02.2016 14:54 6,8 C 7,2 C 6,1 C 97 % 15 lf 1006,4 hPa 0,0 l/m 0 min 0 min 134 W/m 18,8 km/h (3 Bft) 97,87 %
22.02.2016 14:56 6,9 C 7,2 C 6,1 C 97 % 15 lf 1006,4 hPa 0,0 l/m 0 min 0 min 134 W/m 20,9 km/h (4 Bft) 97,87 %
22.02.2016 14:58 6,8 C 7,2 C 6,1 C 97 % 15 lf 1006,4 hPa 0,2 l/m 0 min 2 min 96 W/m 16,7 km/h (3 Bft) 95,74 %
22.02.2016 15:00 6,8 C 6,7 C 5,6 C 97 % 15 lf 1006,6 hPa 0,0 l/m 0 min 0 min 68 W/m 20,9 km/h (4 Bft) 95,74 %
22.02.2016 15:02 6,8 C 6,7 C 5,6 C 97 % 15 lf 1006,6 hPa 0,0 l/m 0 min 0 min 72 W/m 25,1 km/h (4 Bft) 97,83 %
22.02.2016 15:04 6,7 C 6,1 C 5,0 C 97 % 15 lf 1006,7 hPa 0,0 l/m 0 min 2 min 70 W/m 23,0 km/h (4 Bft) 91,49 %
22.02.2016 15:06 6,6 C 6,1 C 5,0 C 96 % 15 lf 1006,9 hPa 0,0 l/m 0 min 0 min 62 W/m 16,7 km/h (3 Bft) 97,87 %
22.02.2016 15:08 6,6 C 6,1 C 5,0 C 97 % 15 lf 1006,8 hPa 0,2 l/m 0 min 0 min 60 W/m 23,0 km/h (4 Bft) 97,87 %
22.02.2016 15:10 6,5 C 6,1 C 5,0 C 97 % 15 lf 1006,8 hPa 0,0 l/m 0 min 2 min 55 W/m 27,2 km/h (4 Bft) 97,87 %
22.02.2016 15:12 6,4 C 6,1 C 4,4 C 96 % 15 lf 1007,0 hPa 0,0 l/m 0 min 2 min 47 W/m 27,2 km/h (4 Bft) 93,62 %
22.02.2016 15:14 6,3 C 6,1 C 5,0 C 96 % 15 lf 1007,0 hPa 0,0 l/m 0 min 2 min 50 W/m 18,8 km/h (3 Bft) 97,83 %
22.02.2016 15:16 6,2 C 6,1 C 4,4 C 96 % 15 lf 1006,9 hPa 0,0 l/m 0 min 0 min 66 W/m 20,9 km/h (4 Bft) 89,36 %
22.02.2016 15:18 6,2 C 6,1 C 5,0 C 96 % 15 lf 1007,0 hPa 0,0 l/m 0 min 0 min 67 W/m 14,6 km/h (3 Bft) 95,74 %
22.02.2016 15:20 6,1 C 6,1 C 5,0 C 96 % 15 lf 1007,0 hPa 0,0 l/m 0 min 0 min 69 W/m 23,0 km/h (4 Bft) 100,00 %
22.02.2016 15:22 6,1 C 6,1 C 5,0 C 96 % 14 lf 1007,0 hPa 0,0 l/m 0 min 0 min 64 W/m 27,2 km/h (4 Bft) 100,00 %
22.02.2016 15:24 6,1 C 5,6 C 4,4 C 96 % 15 lf 1007,0 hPa 0,2 l/m 0 min 2 min 56 W/m 23,0 km/h (4 Bft) 100,00 %
22.02.2016 15:26 6,0 C 5,6 C 4,4 C 96 % 15 lf 1007,0 hPa 0,0 l/m 0 min 0 min 62 W/m 23,0 km/h (4 Bft) 97,83 %
22.02.2016 15:28 5,9 C 5,6 C 4,4 C 96 % 15 lf 1007,0 hPa 0,0 l/m 0 min 0 min 80 W/m 29,3 km/h (5 Bft) 97,87 %
22.02.2016 15:30 5,9 C 5,6 C 4,4 C 96 % 14 lf 1007,1 hPa 0,0 l/m 0 min 2 min 75 W/m 27,2 km/h (4 Bft) 100,00 %
22.02.2016 15:32 5,8 C 5,6 C 4,4 C 96 % 13 lf 1007,1 hPa 0,0 l/m 0 min 2 min 74 W/m 23,0 km/h (4 Bft) 97,87 %
22.02.2016 15:34 5,8 C 5,6 C 4,4 C 96 % 13 lf 1007,1 hPa 0,2 l/m 0 min 2 min 77 W/m 25,1 km/h (4 Bft) 95,74 %
22.02.2016 15:36 5,8 C 5,6 C 4,4 C 96 % 13 lf 1007,1 hPa 0,0 l/m 0 min 2 min 77 W/m 27,2 km/h (4 Bft) 95,65 %
22.02.2016 15:38 5,7 C 5,6 C 4,4 C 96 % 14 lf 1007,1 hPa 0,0 l/m 0 min 0 min 77 W/m 27,2 km/h (4 Bft) 100,00 %
22.02.2016 15:40 5,7 C 5,6 C 4,4 C 96 % 13 lf 1007,1 hPa 0,0 l/m 0 min 0 min 77 W/m 31,4 km/h (5 Bft) 100,00 %
22.02.2016 15:42 5,7 C 5,6 C 4,4 C 96 % 13 lf 1007,1 hPa 0,0 l/m 0 min 0 min 69 W/m 16,7 km/h (3 Bft) 100,00 %
22.02.2016 15:44 5,6 C 5,6 C 4,4 C 96 % 13 lf 1007,1 hPa 0,0 l/m 0 min 2 min 63 W/m 25,1 km/h (4 Bft) 95,74 %
22.02.2016 15:46 5,6 C 5,6 C 4,4 C 96 % 13 lf 1007,1 hPa 0,2 l/m 0 min 2 min 60 W/m 29,3 km/h (5 Bft) 95,74 %
22.02.2016 15:48 5,6 C 5,0 C 3,9 C 96 % 13 lf 1007,1 hPa 0,0 l/m 0 min 2 min 62 W/m 29,3 km/h (5 Bft) 97,83 %
22.02.2016 15:50 5,5 C 5,0 C 3,9 C 96 % 13 lf 1007,1 hPa 0,0 l/m 0 min 2 min 56 W/m 25,1 km/h (4 Bft) 97,87 %
22.02.2016 15:52 5,4 C 5,0 C 3,9 C 96 % 13 lf 1007,1 hPa 0,0 l/m 0 min 2 min 53 W/m 16,7 km/h (3 Bft) 91,49 %
22.02.2016 15:54 5,4 C 5,0 C 3,9 C 96 % 13 lf 1007,1 hPa 0,0 l/m 0 min 2 min 48 W/m 25,1 km/h (4 Bft) 97,87 %
22.02.2016 15:56 5,3 C 5,0 C 3,9 C 96 % 13 lf 1007,1 hPa 0,2 l/m 0 min 0 min 49 W/m 29,3 km/h (5 Bft) 91,49 %
22.02.2016 15:58 5,3 C 5,0 C 3,9 C 96 % 13 lf 1007,1 hPa 0,0 l/m 0 min 0 min 56 W/m 25,1 km/h (4 Bft) 93,62 %
22.02.2016 16:00 5,2 C 5,0 C 3,9 C 96 % 13 lf 1007,1 hPa 0,0 l/m 0 min 0 min 56 W/m 20,9 km/h (4 Bft) 91,30 %
22.02.2016 16:02 5,2 C 5,0 C 3,9 C 96 % 13 lf 1007,1 hPa 0,0 l/m 0 min 0 min 49 W/m 25,1 km/h (4 Bft) 93,62 %
22.02.2016 16:04 5,2 C 5,0 C 3,9 C 96 % 13 lf 1007,2 hPa 0,0 l/m 0 min 0 min 43 W/m 25,1 km/h (4 Bft) 95,74 %
22.02.2016 16:06 5,1 C 5,0 C 3,9 C 96 % 13 lf 1007,3 hPa 0,0 l/m 0 min 0 min 43 W/m 20,9 km/h (4 Bft) 93,62 %
22.02.2016 16:08 5,1 C 5,0 C 3,9 C 96 % 13 lf 1007,2 hPa 0,0 l/m 0 min 2 min 44 W/m 25,1 km/h (4 Bft) 93,62 %
22.02.2016 16:10 5,1 C 5,0 C 3,9 C 96 % 13 lf 1007,3 hPa 0,2 l/m 0 min 2 min 42 W/m 25,1 km/h (4 Bft) 89,36 %
22.02.2016 16:12 5,1 C 5,0 C 3,9 C 96 % 12 lf 1007,2 hPa 0,0 l/m 0 min 2 min 39 W/m 18,8 km/h (3 Bft) 95,65 %
22.02.2016 16:14 5,0 C 5,0 C 3,9 C 96 % 12 lf 1007,2 hPa 0,0 l/m 0 min 2 min 43 W/m 18,8 km/h (3 Bft) 95,74 %
22.02.2016 16:16 5,0 C 5,0 C 3,9 C 96 % 12 lf 1007,2 hPa 0,2 l/m 0 min 2 min 41 W/m 14,6 km/h (3 Bft) 95,74 %
22.02.2016 16:18 4,9 C 5,0 C 3,9 C 96 % 12 lf 1007,2 hPa 0,0 l/m 0 min 2 min 38 W/m 23,0 km/h (4 Bft) 95,74 %
22.02.2016 16:20 4,9 C 5,0 C 3,9 C 96 % 13 lf 1007,2 hPa 0,0 l/m 0 min 2 min 40 W/m 20,9 km/h (4 Bft) 97,87 %
22.02.2016 16:22 4,9 C 5,0 C 3,3 C 96 % 13 lf 1007,1 hPa 0,0 l/m 0 min 2 min 47 W/m 20,9 km/h (4 Bft) 97,87 %
22.02.2016 16:24 4,9 C 5,0 C 3,3 C 96 % 13 lf 1007,1 hPa 0,0 l/m 0 min 2 min 46 W/m 16,7 km/h (3 Bft) 97,83 %
22.02.2016 16:26 4,8 C 5,0 C 3,3 C 96 % 13 lf 1007,1 hPa 0,2 l/m 0 min 2 min 35 W/m 14,6 km/h (3 Bft) 93,62 %
22.02.2016 16:28 4,8 C 4,4 C 3,3 C 96 % 13 lf 1007,1 hPa 0,0 l/m 0 min 2 min 31 W/m 23,0 km/h (4 Bft) 95,74 %
22.02.2016 16:30 4,8 C 4,4 C 3,3 C 96 % 14 lf 1007,0 hPa 0,0 l/m 0 min 2 min 37 W/m 18,8 km/h (3 Bft) 97,87 %
22.02.2016 16:32 4,8 C 4,4 C 3,3 C 96 % 14 lf 1007,1 hPa 0,0 l/m 0 min 2 min 39 W/m 18,8 km/h (3 Bft) 97,87 %
22.02.2016 16:34 4,7 C 4,4 C 3,3 C 96 % 13 lf 1007,1 hPa 0,0 l/m 0 min 2 min 38 W/m 20,9 km/h (4 Bft) 95,74 %
22.02.2016 16:36 4,7 C 4,4 C 3,3 C 96 % 13 lf 1007,1 hPa 0,2 l/m 0 min 2 min 34 W/m 33,5 km/h (5 Bft) 95,65 %
22.02.2016 16:38 4,6 C 4,4 C 3,3 C 96 % 13 lf 1007,2 hPa 0,0 l/m 0 min 2 min 30 W/m 27,2 km/h (4 Bft) 97,87 %
22.02.2016 16:40 4,6 C 4,4 C 3,3 C 96 % 13 lf 1007,2 hPa 0,0 l/m 0 min 2 min 26 W/m 23,0 km/h (4 Bft) 97,87 %
22.02.2016 16:42 4,6 C 4,4 C 3,3 C 96 % 12 lf 1007,4 hPa 0,2 l/m 0 min 2 min 24 W/m 25,1 km/h (4 Bft) 97,87 %
22.02.2016 16:44 4,5 C 4,4 C 3,3 C 96 % 13 lf 1007,4 hPa 0,0 l/m 0 min 2 min 25 W/m 25,1 km/h (4 Bft) 100,00 %
22.02.2016 16:46 4,4 C 4,4 C 3,3 C 96 % 13 lf 1007,4 hPa 0,0 l/m 0 min 2 min 25 W/m 23,0 km/h (4 Bft) 97,83 %
22.02.2016 16:48 4,4 C 4,4 C 3,3 C 96 % 13 lf 1007,3 hPa 0,2 l/m 0 min 2 min 25 W/m 18,8 km/h (3 Bft) 95,74 %
22.02.2016 16:50 4,4 C 4,4 C 3,3 C 96 % 12 lf 1007,4 hPa 0,0 l/m 0 min 2 min 22 W/m 16,7 km/h (3 Bft) 93,62 %
22.02.2016 16:52 4,4 C 3,9 C 3,3 C 96 % 13 lf 1007,3 hPa 0,0 l/m 0 min 2 min 22 W/m 12,6 km/h (3 Bft) 97,87 %
22.02.2016 16:54 4,4 C 3,9 C 3,3 C 96 % 12 lf 1007,3 hPa 0,2 l/m 0 min 2 min 23 W/m 14,6 km/h (3 Bft) 95,74 %
22.02.2016 16:56 4,3 C 3,9 C 3,3 C 96 % 13 lf 1007,3 hPa 0,0 l/m 0 min 2 min 25 W/m 16,7 km/h (3 Bft) 95,74 %
22.02.2016 16:58 4,3 C 3,9 C 2,8 C 96 % 13 lf 1007,3 hPa 0,0 l/m 0 min 2 min 24 W/m 12,6 km/h (3 Bft) 93,48 %
22.02.2016 17:00 4,3 C 3,9 C 3,3 C 96 % 13 lf 1007,3 hPa 0,2 l/m 0 min 2 min 22 W/m 12,6 km/h (3 Bft) 97,87 %
22.02.2016 17:02 4,3 C 3,9 C 3,3 C 96 % 13 lf 1007,4 hPa 0,0 l/m 0 min 2 min 20 W/m 10,5 km/h (2 Bft) 95,74 %
22.02.2016 17:04 4,3 C 3,9 C 3,3 C 96 % 12 lf 1007,4 hPa 0,0 l/m 0 min 2 min 18 W/m 12,6 km/h (3 Bft) 97,87 %
22.02.2016 17:06 4,3 C 3,9 C 3,3 C 96 % 13 lf 1007,4 hPa 0,0 l/m 0 min 2 min 18 W/m 10,5 km/h (2 Bft) 95,74 %
22.02.2016 17:08 4,2 C 3,9 C 2,8 C 96 % 13 lf 1007,5 hPa 0,2 l/m 0 min 2 min 16 W/m 12,6 km/h (3 Bft) 97,87 %
22.02.2016 17:10 4,2 C 3,9 C 2,8 C 96 % 12 lf 1007,4 hPa 0,0 l/m 0 min 2 min 16 W/m 10,5 km/h (2 Bft) 97,83 %
22.02.2016 17:12 4,2 C 3,9 C 2,8 C 96 % 13 lf 1007,5 hPa 0,0 l/m 0 min 2 min 15 W/m 14,6 km/h (3 Bft) 97,87 %
22.02.2016 17:14 4,2 C 3,9 C 2,8 C 96 % 12 lf 1007,5 hPa 0,2 l/m 0 min 2 min 14 W/m 12,6 km/h (3 Bft) 95,74 %
22.02.2016 17:16 4,2 C 3,9 C 2,8 C 96 % 13 lf 1007,5 hPa 0,0 l/m 0 min 2 min 12 W/m 8,4 km/h (2 Bft) 95,74 %
22.02.2016 17:18 4,2 C 3,9 C 2,8 C 96 % 13 lf 1007,5 hPa 0,0 l/m 0 min 2 min 12 W/m 6,3 km/h (2 Bft) 97,87 %
22.02.2016 17:20 4,2 C 3,9 C 2,8 C 96 % 12 lf 1007,5 hPa 0,0 l/m 0 min 2 min 12 W/m 10,5 km/h (2 Bft) 95,74 %
22.02.2016 17:22 4,2 C 3,9 C 2,8 C 96 % 13 lf 1007,5 hPa 0,2 l/m 0 min 2 min 12 W/m 10,5 km/h (2 Bft) 97,83 %
22.02.2016 17:24 4,1 C 3,9 C 2,8 C 96 % 13 lf 1007,5 hPa 0,0 l/m 0 min 2 min 12 W/m 8,4 km/h (2 Bft) 95,74 %
22.02.2016 17:26 4,1 C 3,9 C 3,3 C 96 % 13 lf 1007,6 hPa 0,0 l/m 0 min 2 min 11 W/m 6,3 km/h (2 Bft) 97,87 %
22.02.2016 17:28 4,1 C 3,9 C 2,8 C 96 % 13 lf 1007,6 hPa 0,0 l/m 0 min 2 min 11 W/m 8,4 km/h (2 Bft) 100,00 %
22.02.2016 17:30 4,1 C 3,9 C 3,3 C 96 % 13 lf 1007,6 hPa 0,2 l/m 0 min 2 min 11 W/m 4,2 km/h (1 Bft) 97,87 %
22.02.2016 17:32 4,1 C 3,9 C 2,8 C 96 % 13 lf 1007,7 hPa 0,0 l/m 0 min 2 min 11 W/m 6,3 km/h (2 Bft) 93,62 %
22.02.2016 17:34 4,1 C 3,9 C 3,3 C 96 % 13 lf 1007,7 hPa 0,0 l/m 0 min 2 min 9 W/m 12,6 km/h (3 Bft) 95,65 %
22.02.2016 17:36 4,1 C 3,9 C 2,8 C 96 % 13 lf 1007,7 hPa 0,0 l/m 0 min 2 min 9 W/m 8,4 km/h (2 Bft) 93,62 %
22.02.2016 17:38 4,1 C 3,9 C 3,3 C 96 % 13 lf 1007,8 hPa 0,0 l/m 0 min 2 min 9 W/m 14,6 km/h (3 Bft) 97,87 %
22.02.2016 17:40 4,1 C 3,9 C 3,3 C 96 % 13 lf 1007,8 hPa 0,0 l/m 0 min 2 min 7 W/m 8,4 km/h (2 Bft) 97,87 %
22.02.2016 17:42 4,1 C 3,9 C 3,3 C 96 % 13 lf 1007,8 hPa 0,2 l/m 0 min 2 min 7 W/m 10,5 km/h (2 Bft) 95,74 %
22.02.2016 17:44 4,1 C 3,9 C 3,3 C 97 % 13 lf 1007,9 hPa 0,0 l/m 0 min 2 min 7 W/m 10,5 km/h (2 Bft) 97,87 %
22.02.2016 17:46 4,1 C 3,9 C 2,8 C 97 % 13 lf 1008,0 hPa 0,0 l/m 0 min 2 min 7 W/m 12,6 km/h (3 Bft) 97,83 %
22.02.2016 17:48 4,1 C 3,9 C 2,8 C 97 % 13 lf 1008,0 hPa 0,0 l/m 0 min 2 min 6 W/m 10,5 km/h (2 Bft) 95,74 %
22.02.2016 17:50 4,1 C 3,9 C 2,8 C 97 % 13 lf 1008,0 hPa 0,2 l/m 0 min 2 min 5 W/m 10,5 km/h (2 Bft) 95,74 %
22.02.2016 17:52 4,1 C 3,9 C 2,8 C 97 % 13 lf 1008,0 hPa 0,0 l/m 0 min 2 min 5 W/m 20,9 km/h (4 Bft) 97,87 %
22.02.2016 17:54 4,1 C 3,9 C 2,8 C 97 % 13 lf 1008,0 hPa 0,0 l/m 0 min 2 min 2 W/m 14,6 km/h (3 Bft) 97,87 %
22.02.2016 17:56 4,0 C 3,9 C 2,8 C 97 % 13 lf 1008,1 hPa 0,0 l/m 0 min 2 min 0 W/m 10,5 km/h (2 Bft) 97,83 %
22.02.2016 17:58 4,0 C 3,9 C 2,8 C 97 % 13 lf 1008,2 hPa 0,2 l/m 0 min 2 min 0 W/m 14,6 km/h (3 Bft) 97,87 %
22.02.2016 18:00 4,0 C 3,9 C 2,8 C 97 % 15 lf 1008,2 hPa 0,0 l/m 0 min 2 min 0 W/m 20,9 km/h (4 Bft) 97,87 %
22.02.2016 18:02 3,9 C 3,3 C 2,8 C 96 % 15 lf 1008,3 hPa 0,0 l/m 0 min 2 min 0 W/m 18,8 km/h (3 Bft) 95,74 %
22.02.2016 18:04 3,9 C 3,3 C 2,8 C 96 % 15 lf 1008,3 hPa 0,2 l/m 0 min 2 min 0 W/m 20,9 km/h (4 Bft) 97,14 %
22.02.2016 18:06 3,9 C 3,3 C 2,8 C 96 % 15 lf 1008,3 hPa 0,0 l/m 0 min 2 min 0 W/m 23,0 km/h (4 Bft) 100,00 %
22.02.2016 18:08 3,8 C 3,3 C 2,8 C 96 % 15 lf 1008,4 hPa 0,0 l/m 0 min 2 min 0 W/m 20,9 km/h (4 Bft) 91,49 %
22.02.2016 18:10 3,7 C 3,3 C 2,2 C 96 % 15 lf 1008,5 hPa 0,0 l/m 0 min 2 min 0 W/m 18,8 km/h (3 Bft) 100,00 %
22.02.2016 18:12 3,7 C 3,3 C 2,2 C 96 % 15 lf 1008,5 hPa 0,2 l/m 0 min 2 min 0 W/m 23,0 km/h (4 Bft) 97,83 %
22.02.2016 18:14 3,6 C 2,8 C 2,2 C 96 % 15 lf 1008,5 hPa 0,0 l/m 0 min 2 min 0 W/m 18,8 km/h (3 Bft) 100,00 %
22.02.2016 18:16 3,6 C 2,8 C 2,2 C 96 % 15 lf 1008,5 hPa 0,0 l/m 0 min 2 min 0 W/m 23,0 km/h (4 Bft) 97,87 %
22.02.2016 18:18 3,5 C 2,8 C 2,2 C 96 % 15 lf 1008,6 hPa 0,2 l/m 0 min 2 min 0 W/m 16,7 km/h (3 Bft) 100,00 %
22.02.2016 18:20 3,4 C 2,8 C 1,7 C 96 % 15 lf 1008,7 hPa 0,0 l/m 0 min 2 min 0 W/m 16,7 km/h (3 Bft) 98,28 %
22.02.2016 18:22 3,4 C 2,8 C 1,7 C 96 % 15 lf 1008,7 hPa 0,0 l/m 0 min 2 min 0 W/m 10,5 km/h (2 Bft) 94,44 %
22.02.2016 18:24 3,3 C 2,8 C 1,7 C 96 % 15 lf 1008,7 hPa 0,0 l/m 0 min 2 min 0 W/m 18,8 km/h (3 Bft) 89,13 %
22.02.2016 18:26 3,2 C 2,8 C 1,7 C 96 % 15 lf 1008,7 hPa 0,0 l/m 0 min 2 min 0 W/m 12,6 km/h (3 Bft) 97,87 %
22.02.2016 18:28 3,2 C 2,8 C 1,7 C 96 % 15 lf 1008,8 hPa 0,2 l/m 0 min 2 min 0 W/m 10,5 km/h (2 Bft) 95,74 %
22.02.2016 18:30 3,2 C 2,8 C 1,7 C 96 % 15 lf 1008,8 hPa 0,0 l/m 0 min 2 min 0 W/m 14,6 km/h (3 Bft) 97,87 %
22.02.2016 18:32 3,1 C 2,8 C 1,7 C 96 % 15 lf 1008,7 hPa 0,0 l/m 0 min 2 min 0 W/m 12,6 km/h (3 Bft) 93,62 %
22.02.2016 18:34 3,1 C 2,8 C 1,7 C 96 % 15 lf 1008,8 hPa 0,0 l/m 0 min 2 min 0 W/m 10,5 km/h (2 Bft) 95,74 %
22.02.2016 18:36 3,1 C 2,8 C 1,7 C 96 % 15 lf 1008,8 hPa 0,0 l/m 0 min 2 min 0 W/m 8,4 km/h (2 Bft) 95,65 %
22.02.2016 18:38 3,0 C 2,8 C 1,7 C 96 % 15 lf 1008,8 hPa 0,0 l/m 0 min 2 min 0 W/m 6,3 km/h (2 Bft) 95,74 %
22.02.2016 18:40 3,0 C 2,8 C 1,7 C 96 % 15 lf 1008,8 hPa 0,0 l/m 0 min 2 min 0 W/m 8,4 km/h (2 Bft) 91,49 %
22.02.2016 18:42 2,9 C 2,8 C 1,7 C 96 % 15 lf 1008,9 hPa 0,0 l/m 0 min 2 min 0 W/m 6,3 km/h (2 Bft) 95,74 %
22.02.2016 18:44 2,9 C 2,8 C 1,7 C 96 % 15 lf 1008,9 hPa 0,0 l/m 0 min 2 min 0 W/m 8,4 km/h (2 Bft) 93,62 %
22.02.2016 18:46 2,9 C 2,8 C 1,7 C 96 % 15 lf 1008,9 hPa 0,2 l/m 0 min 2 min 0 W/m 6,3 km/h (2 Bft) 95,65 %
22.02.2016 18:48 2,9 C 2,8 C 1,7 C 96 % 15 lf 1008,9 hPa 0,0 l/m 0 min 2 min 0 W/m 6,3 km/h (2 Bft) 93,62 %
22.02.2016 18:50 2,9 C 2,8 C 1,7 C 96 % 15 lf 1008,9 hPa 0,0 l/m 0 min 2 min 0 W/m 6,3 km/h (2 Bft) 96,61 %
22.02.2016 18:52 2,9 C 2,8 C 1,7 C 96 % 15 lf 1008,9 hPa 0,0 l/m 0 min 2 min 0 W/m 8,4 km/h (2 Bft) 91,43 %
22.02.2016 18:54 2,8 C 2,8 C 1,7 C 96 % 15 lf 1008,9 hPa 0,0 l/m 0 min 2 min 0 W/m 6,3 km/h (2 Bft) 93,62 %
22.02.2016 18:56 2,8 C 2,8 C 1,7 C 96 % 15 lf 1009,0 hPa 0,0 l/m 0 min 2 min 0 W/m 6,3 km/h (2 Bft) 93,62 %
22.02.2016 18:58 2,8 C 2,8 C 1,7 C 96 % 15 lf 1009,0 hPa 0,0 l/m 0 min 2 min 0 W/m 6,3 km/h (2 Bft) 95,65 %
22.02.2016 19:00 2,8 C 2,8 C 1,7 C 96 % 15 lf 1009,0 hPa 0,0 l/m 0 min 2 min 0 W/m 6,3 km/h (2 Bft) 93,62 %
22.02.2016 19:02 2,8 C 2,8 C 1,7 C 96 % 15 lf 1009,1 hPa 0,0 l/m 0 min 2 min 0 W/m 6,3 km/h (2 Bft) 93,62 %
22.02.2016 19:04 2,8 C 2,8 C 1,7 C 96 % 15 lf 1009,0 hPa 0,2 l/m 0 min 2 min 0 W/m 6,3 km/h (2 Bft) 95,74 %
22.02.2016 19:06 2,8 C 2,8 C 1,7 C 96 % 15 lf 1009,0 hPa 0,0 l/m 0 min 2 min 0 W/m 8,4 km/h (2 Bft) 95,74 %
22.02.2016 19:08 2,8 C 2,8 C 1,7 C 96 % 15 lf 1009,0 hPa 0,0 l/m 0 min 2 min 0 W/m 8,4 km/h (2 Bft) 95,74 %
22.02.2016 19:10 2,8 C 2,8 C 1,7 C 96 % 15 lf 1009,0 hPa 0,0 l/m 0 min 2 min 0 W/m 8,4 km/h (2 Bft) 95,65 %
22.02.2016 19:12 2,8 C 2,8 C 1,7 C 96 % 15 lf 1009,1 hPa 0,0 l/m 0 min 2 min 0 W/m 8,4 km/h (2 Bft) 91,49 %
22.02.2016 19:14 2,8 C 2,8 C 1,7 C 96 % 15 lf 1009,0 hPa 0,0 l/m 0 min 2 min 0 W/m 6,3 km/h (2 Bft) 93,62 %
22.02.2016 19:16 2,8 C 2,8 C 2,2 C 96 % 15 lf 1009,1 hPa 0,0 l/m 0 min 2 min 0 W/m 4,2 km/h (1 Bft) 97,87 %
22.02.2016 19:18 2,8 C 2,8 C 2,2 C 96 % 15 lf 1009,0 hPa 0,0 l/m 0 min 2 min 0 W/m 8,4 km/h (2 Bft) 93,62 %
22.02.2016 19:20 2,8 C 2,8 C 2,2 C 96 % 15 lf 1009,0 hPa 0,0 l/m 0 min 2 min 0 W/m 6,3 km/h (2 Bft) 97,87 %
22.02.2016 19:22 2,8 C 2,8 C 1,7 C 96 % 15 lf 1009,0 hPa 0,0 l/m 0 min 2 min 0 W/m 6,3 km/h (2 Bft) 95,65 %
22.02.2016 19:24 2,8 C 2,8 C 1,7 C 96 % 15 lf 1009,0 hPa 0,0 l/m 0 min 2 min 0 W/m 8,4 km/h (2 Bft) 95,74 %
22.02.2016 19:26 2,8 C 2,8 C 1,7 C 96 % 15 lf 1009,1 hPa 0,2 l/m 0 min 2 min 0 W/m 4,2 km/h (1 Bft) 95,74 %
22.02.2016 19:28 2,8 C 2,8 C 1,7 C 96 % 15 lf 1009,1 hPa 0,0 l/m 0 min 2 min 0 W/m 4,2 km/h (1 Bft) 93,62 %
22.02.2016 19:30 2,8 C 2,8 C 1,7 C 96 % 15 lf 1009,1 hPa 0,0 l/m 0 min 2 min 0 W/m 6,3 km/h (2 Bft) 91,49 %
22.02.2016 19:32 2,8 C 2,8 C 1,7 C 96 % 15 lf 1009,1 hPa 0,0 l/m 0 min 2 min 0 W/m 6,3 km/h (2 Bft) 95,74 %
22.02.2016 19:34 2,8 C 2,8 C 1,7 C 96 % 15 lf 1009,1 hPa 0,0 l/m 0 min 2 min 0 W/m 6,3 km/h (2 Bft) 97,83 %
22.02.2016 19:36 2,8 C 2,8 C 1,7 C 96 % 15 lf 1009,1 hPa 0,0 l/m 0 min 2 min 0 W/m 6,3 km/h (2 Bft) 93,62 %
22.02.2016 19:38 2,8 C 2,8 C 1,7 C 96 % 15 lf 1009,0 hPa 0,0 l/m 0 min 2 min 0 W/m 8,4 km/h (2 Bft) 95,74 %
22.02.2016 19:40 2,8 C 2,8 C 1,7 C 96 % 15 lf 1009,1 hPa 0,0 l/m 0 min 2 min 0 W/m 10,5 km/h (2 Bft) 97,87 %
22.02.2016 19:42 2,8 C 2,8 C 1,7 C 96 % 15 lf 1009,1 hPa 0,2 l/m 0 min 2 min 0 W/m 6,3 km/h (2 Bft) 91,49 %
22.02.2016 19:44 2,8 C 2,8 C 1,7 C 96 % 15 lf 1009,1 hPa 0,0 l/m 0 min 2 min 0 W/m 4,2 km/h (1 Bft) 95,74 %
22.02.2016 19:46 2,7 C 2,8 C 1,7 C 96 % 15 lf 1009,1 hPa 0,0 l/m 0 min 2 min 0 W/m 6,3 km/h (2 Bft) 97,83 %
22.02.2016 19:48 2,7 C 2,8 C 1,7 C 96 % 15 lf 1009,1 hPa 0,0 l/m 0 min 2 min 0 W/m 8,4 km/h (2 Bft) 97,87 %
22.02.2016 19:50 2,7 C 2,8 C 1,7 C 96 % 15 lf 1009,1 hPa 0,0 l/m 0 min 2 min 0 W/m 10,5 km/h (2 Bft) 100,00 %
22.02.2016 19:52 2,7 C 2,8 C 1,7 C 96 % 15 lf 1009,1 hPa 0,0 l/m 0 min 2 min 0 W/m 8,4 km/h (2 Bft) 91,49 %
22.02.2016 19:54 2,7 C 2,8 C 1,7 C 96 % 15 lf 1009,1 hPa 0,2 l/m 0 min 2 min 0 W/m 10,5 km/h (2 Bft) 97,87 %
22.02.2016 19:56 2,7 C 2,2 C 1,7 C 96 % 15 lf 1009,1 hPa 0,0 l/m 0 min 2 min 0 W/m 10,5 km/h (2 Bft) 95,65 %
22.02.2016 19:58 2,7 C 2,2 C 1,7 C 96 % 15 lf 1009,1 hPa 0,0 l/m 0 min 2 min 0 W/m 8,4 km/h (2 Bft) 91,49 %
22.02.2016 20:00 2,7 C 2,2 C 1,7 C 96 % 15 lf 1009,1 hPa 0,0 l/m 0 min 2 min 0 W/m 6,3 km/h (2 Bft) 97,87 %
22.02.2016 20:02 2,7 C 2,2 C 1,7 C 96 % 15 lf 1009,1 hPa 0,0 l/m 0 min 2 min 0 W/m 6,3 km/h (2 Bft) 97,87 %
22.02.2016 20:04 2,7 C 2,2 C 1,7 C 96 % 15 lf 1009,1 hPa 0,0 l/m 0 min 2 min 0 W/m 6,3 km/h (2 Bft) 97,87 %
22.02.2016 20:06 2,7 C 2,2 C 1,7 C 96 % 15 lf 1009,1 hPa 0,0 l/m 0 min 2 min 0 W/m 8,4 km/h (2 Bft) 93,62 %
22.02.2016 20:08 2,7 C 2,2 C 1,7 C 96 % 15 lf 1009,1 hPa 0,0 l/m 0 min 2 min 0 W/m 8,4 km/h (2 Bft) 95,74 %
22.02.2016 20:10 2,6 C 2,2 C 1,7 C 96 % 15 lf 1009,1 hPa 0,0 l/m 0 min 2 min 0 W/m 10,5 km/h (2 Bft) 95,65 %
22.02.2016 20:12 2,6 C 2,2 C 1,7 C 96 % 15 lf 1009,1 hPa 0,0 l/m 0 min 2 min 0 W/m 8,4 km/h (2 Bft) 95,74 %
22.02.2016 20:14 2,6 C 2,2 C 1,7 C 96 % 15 lf 1009,1 hPa 0,0 l/m 0 min 2 min 0 W/m 10,5 km/h (2 Bft) 97,87 %
22.02.2016 20:16 2,6 C 2,2 C 1,7 C 96 % 15 lf 1009,1 hPa 0,2 l/m 0 min 2 min 0 W/m 8,4 km/h (2 Bft) 95,74 %
22.02.2016 20:18 2,6 C 2,2 C 1,7 C 96 % 15 lf 1009,1 hPa 0,0 l/m 0 min 2 min 0 W/m 8,4 km/h (2 Bft) 95,74 %
22.02.2016 20:20 2,6 C 2,2 C 1,7 C 96 % 15 lf 1009,1 hPa 0,0 l/m 0 min 2 min 0 W/m 6,3 km/h (2 Bft) 95,65 %
22.02.2016 20:22 2,6 C 2,8 C 1,7 C 96 % 15 lf 1009,1 hPa 0,0 l/m 0 min 2 min 0 W/m 6,3 km/h (2 Bft) 93,62 %
22.02.2016 20:24 2,6 C 2,8 C 1,7 C 96 % 15 lf 1009,1 hPa 0,0 l/m 0 min 2 min 0 W/m 6,3 km/h (2 Bft) 93,62 %
22.02.2016 20:26 2,6 C 2,8 C 1,7 C 96 % 15 lf 1009,1 hPa 0,0 l/m 0 min 2 min 0 W/m 6,3 km/h (2 Bft) 91,49 %
22.02.2016 20:28 2,6 C 2,8 C 1,7 C 96 % 15 lf 1009,1 hPa 0,0 l/m 0 min 2 min 0 W/m 10,5 km/h (2 Bft) 95,74 %
22.02.2016 20:30 2,6 C 2,2 C 1,7 C 96 % 15 lf 1009,1 hPa 0,2 l/m 0 min 2 min 0 W/m 8,4 km/h (2 Bft) 95,74 %
22.02.2016 20:32 2,6 C 2,2 C 1,7 C 96 % 15 lf 1009,1 hPa 0,0 l/m 0 min 2 min 0 W/m 8,4 km/h (2 Bft) 97,83 %
22.02.2016 20:34 2,6 C 2,2 C 1,7 C 96 % 15 lf 1009,0 hPa 0,0 l/m 0 min 2 min 0 W/m 8,4 km/h (2 Bft) 95,74 %
22.02.2016 20:36 2,6 C 2,2 C 1,7 C 96 % 15 lf 1009,0 hPa 0,0 l/m 0 min 2 min 0 W/m 8,4 km/h (2 Bft) 97,87 %
22.02.2016 20:38 2,6 C 2,2 C 1,7 C 96 % 15 lf 1009,1 hPa 0,0 l/m 0 min 2 min 0 W/m 14,6 km/h (3 Bft) 95,74 %
22.02.2016 20:40 2,6 C 2,2 C 1,7 C 96 % 15 lf 1009,1 hPa 0,0 l/m 0 min 2 min 0 W/m 12,6 km/h (3 Bft) 95,74 %
22.02.2016 20:42 2,6 C 2,2 C 1,7 C 96 % 15 lf 1009,0 hPa 0,0 l/m 0 min 2 min 0 W/m 8,4 km/h (2 Bft) 95,74 %
22.02.2016 20:44 2,5 C 2,2 C 1,7 C 96 % 15 lf 1009,1 hPa 0,0 l/m 0 min 2 min 0 W/m 12,6 km/h (3 Bft) 97,83 %
22.02.2016 20:46 2,6 C 2,8 C 1,7 C 96 % 15 lf 1009,0 hPa 0,0 l/m 0 min 2 min 0 W/m 10,5 km/h (2 Bft) 97,87 %
22.02.2016 20:48 2,6 C 2,2 C 1,7 C 96 % 15 lf 1009,1 hPa 0,0 l/m 0 min 2 min 0 W/m 10,5 km/h (2 Bft) 100,00 %
22.02.2016 20:50 2,6 C 2,2 C 1,7 C 96 % 15 lf 1009,1 hPa 0,0 l/m 0 min 0 min 0 W/m 8,4 km/h (2 Bft) 93,62 %
22.02.2016 20:52 2,6 C 2,2 C 1,7 C 96 % 15 lf 1009,1 hPa 0,0 l/m 0 min 0 min 0 W/m 10,5 km/h (2 Bft) 100,00 %
22.02.2016 20:54 2,6 C 2,2 C 1,7 C 96 % 15 lf 1009,1 hPa 0,0 l/m 0 min 0 min 0 W/m 10,5 km/h (2 Bft) 100,00 %
22.02.2016 20:56 2,6 C 2,2 C 1,7 C 96 % 15 lf 1009,1 hPa 0,0 l/m 0 min 0 min 0 W/m 10,5 km/h (2 Bft) 97,87 %
22.02.2016 20:58 2,5 C 2,2 C 1,7 C 96 % 15 lf 1009,1 hPa 0,0 l/m 0 min 2 min 0 W/m 10,5 km/h (2 Bft) 95,74 %
22.02.2016 21:00 2,5 C 2,2 C 1,7 C 96 % 15 lf 1009,2 hPa 0,0 l/m 0 min 2 min 0 W/m 10,5 km/h (2 Bft) 95,74 %
22.02.2016 21:02 2,5 C 2,2 C 1,7 C 96 % 15 lf 1009,2 hPa 0,0 l/m 0 min 2 min 0 W/m 14,6 km/h (3 Bft) 100,00 %
22.02.2016 21:04 2,5 C 2,2 C 1,7 C 96 % 15 lf 1009,2 hPa 0,0 l/m 0 min 2 min 0 W/m 12,6 km/h (3 Bft) 89,36 %
22.02.2016 21:06 2,6 C 2,2 C 1,7 C 96 % 15 lf 1009,3 hPa 0,0 l/m 0 min 2 min 0 W/m 12,6 km/h (3 Bft) 93,48 %
22.02.2016 21:08 2,5 C 2,2 C 1,7 C 96 % 15 lf 1009,3 hPa 0,0 l/m 0 min 2 min 0 W/m 14,6 km/h (3 Bft) 93,62 %
22.02.2016 21:10 2,5 C 2,2 C 1,7 C 97 % 15 lf 1009,3 hPa 0,0 l/m 0 min 2 min 0 W/m 10,5 km/h (2 Bft) 91,49 %
22.02.2016 21:12 2,5 C 2,2 C 1,7 C 97 % 15 lf 1009,3 hPa 0,0 l/m 0 min 2 min 0 W/m 14,6 km/h (3 Bft) 93,62 %
22.02.2016 21:14 2,5 C 2,8 C 1,7 C 97 % 15 lf 1009,3 hPa 0,2 l/m 0 min 2 min 0 W/m 6,3 km/h (2 Bft) 93,62 %
22.02.2016 21:16 2,6 C 2,8 C 1,7 C 96 % 15 lf 1009,4 hPa 0,0 l/m 0 min 2 min 0 W/m 10,5 km/h (2 Bft) 93,62 %
22.02.2016 21:18 2,5 C 2,8 C 1,7 C 97 % 15 lf 1009,3 hPa 0,0 l/m 0 min 2 min 0 W/m 12,6 km/h (3 Bft) 95,65 %
22.02.2016 21:20 2,6 C 2,8 C 1,7 C 97 % 15 lf 1009,4 hPa 0,0 l/m 0 min 2 min 0 W/m 12,6 km/h (3 Bft) 93,62 %
22.02.2016 21:22 2,6 C 2,8 C 1,7 C 97 % 15 lf 1009,4 hPa 0,0 l/m 0 min 2 min 0 W/m 10,5 km/h (2 Bft) 95,74 %
22.02.2016 21:24 2,6 C 2,8 C 1,7 C 96 % 15 lf 1009,5 hPa 0,0 l/m 0 min 2 min 0 W/m 8,4 km/h (2 Bft) 95,74 %
22.02.2016 21:26 2,6 C 2,8 C 1,7 C 96 % 15 lf 1009,5 hPa 0,0 l/m 0 min 2 min 0 W/m 14,6 km/h (3 Bft) 95,74 %
22.02.2016 21:28 2,6 C 2,8 C 1,7 C 97 % 15 lf 1009,7 hPa 0,0 l/m 0 min 2 min 0 W/m 14,6 km/h (3 Bft) 95,74 %
22.02.2016 21:30 2,6 C 2,8 C 1,7 C 97 % 15 lf 1009,5 hPa 0,0 l/m 0 min 2 min 0 W/m 8,4 km/h (2 Bft) 93,48 %
22.02.2016 21:32 2,6 C 2,8 C 1,7 C 97 % 15 lf 1009,6 hPa 0,0 l/m 0 min 2 min 0 W/m 10,5 km/h (2 Bft) 95,74 %
22.02.2016 21:34 2,6 C 2,8 C 1,7 C 97 % 15 lf 1009,7 hPa 0,0 l/m 0 min 2 min 0 W/m 10,5 km/h (2 Bft) 97,87 %
22.02.2016 21:36 2,6 C 2,8 C 1,7 C 97 % 15 lf 1009,6 hPa 0,0 l/m 0 min 2 min 0 W/m 10,5 km/h (2 Bft) 97,87 %
22.02.2016 21:38 2,6 C 2,8 C 1,7 C 97 % 15 lf 1009,7 hPa 0,0 l/m 0 min 2 min 0 W/m 10,5 km/h (2 Bft) 91,49 %
22.02.2016 21:40 2,6 C 2,8 C 1,7 C 97 % 15 lf 1009,7 hPa 0,0 l/m 0 min 2 min 0 W/m 14,6 km/h (3 Bft) 95,74 %
22.02.2016 21:42 2,6 C 2,8 C 1,7 C 97 % 15 lf 1009,7 hPa 0,0 l/m 0 min 2 min 0 W/m 6,3 km/h (2 Bft) 97,83 %
22.02.2016 21:44 2,6 C 2,8 C 1,7 C 97 % 15 lf 1009,7 hPa 0,0 l/m 0 min 2 min 0 W/m 12,6 km/h (3 Bft) 97,87 %
22.02.2016 21:46 2,6 C 2,8 C 1,7 C 97 % 15 lf 1009,7 hPa 0,0 l/m 0 min 2 min 0 W/m 8,4 km/h (2 Bft) 93,62 %
22.02.2016 21:48 2,6 C 2,8 C 1,7 C 97 % 15 lf 1009,7 hPa 0,0 l/m 0 min 2 min 0 W/m 14,6 km/h (3 Bft) 93,62 %
22.02.2016 21:50 2,6 C 2,8 C 1,7 C 97 % 15 lf 1009,6 hPa 0,0 l/m 0 min 2 min 0 W/m 8,4 km/h (2 Bft) 95,74 %
22.02.2016 21:52 2,6 C 2,8 C 1,7 C 97 % 15 lf 1009,6 hPa 0,0 l/m 0 min 2 min 0 W/m 10,5 km/h (2 Bft) 95,74 %
22.02.2016 21:54 2,6 C 2,8 C 1,7 C 97 % 15 lf 1009,7 hPa 0,0 l/m 0 min 2 min 0 W/m 12,6 km/h (3 Bft) 97,83 %
22.02.2016 21:56 2,6 C 2,8 C 1,7 C 97 % 15 lf 1009,8 hPa 0,0 l/m 0 min 2 min 0 W/m 12,6 km/h (3 Bft) 95,74 %
22.02.2016 21:58 2,6 C 2,8 C 1,7 C 97 % 15 lf 1009,7 hPa 0,2 l/m 0 min 2 min 0 W/m 12,6 km/h (3 Bft) 97,87 %
22.02.2016 22:00 2,6 C 2,8 C 1,7 C 97 % 15 lf 1009,7 hPa 0,0 l/m 0 min 2 min 0 W/m 14,6 km/h (3 Bft) 97,87 %
22.02.2016 22:02 2,6 C 2,8 C 1,7 C 97 % 15 lf 1009,7 hPa 0,0 l/m 0 min 2 min 0 W/m 14,6 km/h (3 Bft) 100,00 %
22.02.2016 22:04 2,6 C 2,8 C 1,7 C 97 % 15 lf 1009,7 hPa 0,0 l/m 0 min 2 min 0 W/m 14,6 km/h (3 Bft) 97,87 %
22.02.2016 22:06 2,6 C 2,8 C 1,7 C 97 % 15 lf 1009,7 hPa 0,0 l/m 0 min 2 min 0 W/m 14,6 km/h (3 Bft) 95,65 %
22.02.2016 22:08 2,6 C 2,8 C 1,7 C 97 % 15 lf 1009,8 hPa 0,0 l/m 0 min 2 min 0 W/m 12,6 km/h (3 Bft) 97,87 %
22.02.2016 22:10 2,6 C 2,8 C 1,7 C 97 % 15 lf 1009,8 hPa 0,0 l/m 0 min 2 min 0 W/m 14,6 km/h (3 Bft) 100,00 %
22.02.2016 22:12 2,6 C 2,8 C 1,7 C 97 % 15 lf 1009,8 hPa 0,0 l/m 0 min 2 min 0 W/m 18,8 km/h (3 Bft) 95,74 %
22.02.2016 22:14 2,6 C 2,8 C 1,7 C 97 % 15 lf 1009,7 hPa 0,0 l/m 0 min 2 min 0 W/m 16,7 km/h (3 Bft) 100,00 %
22.02.2016 22:16 2,6 C 2,8 C 1,7 C 97 % 15 lf 1009,7 hPa 0,0 l/m 0 min 2 min 0 W/m 14,6 km/h (3 Bft) 97,83 %
22.02.2016 22:18 2,6 C 2,8 C 1,7 C 97 % 15 lf 1009,7 hPa 0,0 l/m 0 min 2 min 0 W/m 16,7 km/h (3 Bft) 95,74 %
22.02.2016 22:20 2,6 C 2,8 C 1,7 C 97 % 15 lf 1009,8 hPa 0,0 l/m 0 min 2 min 0 W/m 14,6 km/h (3 Bft) 97,87 %
22.02.2016 22:22 2,6 C 2,8 C 1,7 C 97 % 15 lf 1009,8 hPa 0,2 l/m 0 min 2 min 0 W/m 18,8 km/h (3 Bft) 97,87 %
22.02.2016 22:24 2,6 C 2,8 C 1,7 C 97 % 15 lf 1009,7 hPa 0,0 l/m 0 min 2 min 0 W/m 14,6 km/h (3 Bft) 100,00 %
22.02.2016 22:26 2,6 C 2,8 C 1,7 C 97 % 15 lf 1009,7 hPa 0,0 l/m 0 min 0 min 0 W/m 18,8 km/h (3 Bft) 100,00 %
22.02.2016 22:28 2,6 C 2,8 C 1,7 C 97 % 15 lf 1009,7 hPa 0,0 l/m 0 min 2 min 0 W/m 14,6 km/h (3 Bft) 97,83 %
22.02.2016 22:30 2,6 C 2,8 C 1,7 C 97 % 15 lf 1009,8 hPa 0,0 l/m 0 min 2 min 0 W/m 10,5 km/h (2 Bft) 100,00 %
22.02.2016 22:32 2,6 C 2,8 C 1,7 C 97 % 15 lf 1009,8 hPa 0,0 l/m 0 min 0 min 0 W/m 14,6 km/h (3 Bft) 100,00 %
22.02.2016 22:34 2,6 C 2,8 C 1,7 C 97 % 15 lf 1009,8 hPa 0,0 l/m 0 min 0 min 0 W/m 16,7 km/h (3 Bft) 97,87 %
22.02.2016 22:36 2,6 C 2,8 C 1,7 C 97 % 15 lf 1009,8 hPa 0,0 l/m 0 min 0 min 0 W/m 10,5 km/h (2 Bft) 100,00 %
22.02.2016 22:38 2,6 C 2,8 C 1,7 C 97 % 15 lf 1009,9 hPa 0,0 l/m 0 min 2 min 0 W/m 16,7 km/h (3 Bft) 95,74 %
22.02.2016 22:40 2,6 C 2,8 C 1,7 C 97 % 15 lf 1010,0 hPa 0,0 l/m 0 min 2 min 0 W/m 14,6 km/h (3 Bft) 93,48 %
22.02.2016 22:42 2,6 C 2,8 C 1,7 C 97 % 15 lf 1009,9 hPa 0,0 l/m 0 min 0 min 0 W/m 14,6 km/h (3 Bft) 93,62 %
22.02.2016 22:44 2,6 C 2,8 C 1,7 C 97 % 15 lf 1010,0 hPa 0,0 l/m 0 min 0 min 0 W/m 16,7 km/h (3 Bft) 100,00 %
22.02.2016 22:46 2,6 C 2,8 C 1,7 C 97 % 15 lf 1010,0 hPa 0,0 l/m 0 min 0 min 0 W/m 12,6 km/h (3 Bft) 93,62 %
22.02.2016 22:48 2,6 C 2,8 C 1,7 C 97 % 15 lf 1010,0 hPa 0,0 l/m 0 min 0 min 0 W/m 12,6 km/h (3 Bft) 97,87 %
22.02.2016 22:50 2,6 C 2,8 C 1,7 C 97 % 15 lf 1010,0 hPa 0,0 l/m 0 min 0 min 0 W/m 14,6 km/h (3 Bft) 97,87 %
22.02.2016 22:52 2,6 C 2,8 C 1,7 C 97 % 15 lf 1010,0 hPa 0,0 l/m 0 min 0 min 0 W/m 14,6 km/h (3 Bft) 93,48 %
22.02.2016 22:54 2,6 C 2,8 C 1,7 C 97 % 15 lf 1010,0 hPa 0,0 l/m 0 min 0 min 0 W/m 14,6 km/h (3 Bft) 95,74 %
22.02.2016 22:56 2,6 C 2,8 C 1,7 C 97 % 15 lf 1010,1 hPa 0,0 l/m 0 min 0 min 0 W/m 12,6 km/h (3 Bft) 93,62 %
22.02.2016 22:58 2,6 C 2,8 C 1,7 C 97 % 15 lf 1010,0 hPa 0,0 l/m 0 min 0 min 0 W/m 14,6 km/h (3 Bft) 91,49 %
22.02.2016 23:00 2,6 C 2,8 C 1,7 C 97 % 15 lf 1010,0 hPa 0,0 l/m 0 min 0 min 0 W/m 12,6 km/h (3 Bft) 89,36 %
22.02.2016 23:02 2,6 C 2,8 C 1,7 C 97 % 15 lf 1010,0 hPa 0,0 l/m 0 min 0 min 0 W/m 18,8 km/h (3 Bft) 93,62 %
22.02.2016 23:04 2,6 C 2,8 C 1,7 C 97 % 15 lf 1010,0 hPa 0,0 l/m 0 min 0 min 0 W/m 14,6 km/h (3 Bft) 93,48 %
22.02.2016 23:06 2,6 C 2,8 C 1,7 C 97 % 15 lf 1010,0 hPa 0,0 l/m 0 min 0 min 0 W/m 14,6 km/h (3 Bft) 91,49 %
22.02.2016 23:08 2,6 C 2,8 C 1,7 C 97 % 15 lf 1010,0 hPa 0,0 l/m 0 min 0 min 0 W/m 12,6 km/h (3 Bft) 89,36 %
22.02.2016 23:10 2,6 C 2,8 C 1,7 C 97 % 15 lf 1009,9 hPa 0,0 l/m 0 min 0 min 0 W/m 14,6 km/h (3 Bft) 95,74 %
22.02.2016 23:12 2,6 C 2,8 C 1,7 C 97 % 15 lf 1009,9 hPa 0,0 l/m 0 min 0 min 0 W/m 14,6 km/h (3 Bft) 93,62 %
22.02.2016 23:14 2,6 C 2,8 C 1,7 C 97 % 15 lf 1010,0 hPa 0,0 l/m 0 min 0 min 0 W/m 12,6 km/h (3 Bft) 91,49 %
22.02.2016 23:16 2,6 C 2,8 C 1,7 C 97 % 15 lf 1010,0 hPa 0,0 l/m 0 min 0 min 0 W/m 14,6 km/h (3 Bft) 91,30 %
22.02.2016 23:18 2,6 C 2,8 C 1,7 C 97 % 15 lf 1009,9 hPa 0,0 l/m 0 min 0 min 0 W/m 14,6 km/h (3 Bft) 91,49 %
22.02.2016 23:20 2,6 C 2,8 C 1,7 C 97 % 15 lf 1009,8 hPa 0,0 l/m 0 min 0 min 0 W/m 14,6 km/h (3 Bft) 93,62 %
22.02.2016 23:22 2,6 C 2,8 C 1,7 C 97 % 15 lf 1009,9 hPa 0,0 l/m 0 min 0 min 0 W/m 12,6 km/h (3 Bft) 93,62 %
22.02.2016 23:24 2,6 C 2,8 C 1,7 C 97 % 15 lf 1009,9 hPa 0,0 l/m 0 min 0 min 0 W/m 12,6 km/h (3 Bft) 93,62 %
22.02.2016 23:26 2,6 C 2,8 C 1,7 C 97 % 15 lf 1009,9 hPa 0,0 l/m 0 min 0 min 0 W/m 14,6 km/h (3 Bft) 93,48 %
22.02.2016 23:28 2,6 C 2,8 C 1,7 C 97 % 15 lf 1009,9 hPa 0,0 l/m 0 min 0 min 0 W/m 12,6 km/h (3 Bft) 93,62 %
22.02.2016 23:30 2,6 C 2,8 C 1,7 C 97 % 15 lf 1009,9 hPa 0,0 l/m 0 min 0 min 0 W/m 10,5 km/h (2 Bft) 89,36 %
22.02.2016 23:32 2,6 C 2,8 C 1,7 C 97 % 15 lf 1009,9 hPa 0,0 l/m 0 min 0 min 0 W/m 12,6 km/h (3 Bft) 95,74 %
22.02.2016 23:34 2,6 C 2,8 C 1,7 C 97 % 15 lf 1009,9 hPa 0,0 l/m 0 min 0 min 0 W/m 12,6 km/h (3 Bft) 93,62 %
22.02.2016 23:36 2,6 C 2,8 C 1,7 C 97 % 15 lf 1009,9 hPa 0,0 l/m 0 min 0 min 0 W/m 12,6 km/h (3 Bft) 91,49 %
22.02.2016 23:38 2,6 C 2,8 C 1,7 C 97 % 15 lf 1009,8 hPa 0,0 l/m 0 min 0 min 0 W/m 20,9 km/h (4 Bft) 95,65 %
22.02.2016 23:40 2,6 C 2,8 C 1,7 C 97 % 15 lf 1009,8 hPa 0,0 l/m 0 min 0 min 0 W/m 14,6 km/h (3 Bft) 93,62 %
22.02.2016 23:42 2,6 C 2,8 C 1,7 C 97 % 15 lf 1009,9 hPa 0,0 l/m 0 min 0 min 0 W/m 14,6 km/h (3 Bft) 91,49 %
22.02.2016 23:44 2,6 C 2,8 C 1,7 C 97 % 15 lf 1009,8 hPa 0,0 l/m 0 min 0 min 0 W/m 8,4 km/h (2 Bft) 93,62 %
22.02.2016 23:46 2,6 C 2,8 C 1,7 C 97 % 15 lf 1009,9 hPa 0,0 l/m 0 min 0 min 0 W/m 16,7 km/h (3 Bft) 93,62 %
22.02.2016 23:48 2,6 C 2,8 C 1,7 C 97 % 15 lf 1009,9 hPa 0,0 l/m 0 min 0 min 0 W/m 10,5 km/h (2 Bft) 91,49 %
22.02.2016 23:50 2,6 C 2,8 C 1,7 C 97 % 15 lf 1009,9 hPa 0,0 l/m 0 min 0 min 0 W/m 14,6 km/h (3 Bft) 93,48 %
22.02.2016 23:52 2,6 C 2,8 C 1,7 C 97 % 15 lf 1009,9 hPa 0,0 l/m 0 min 0 min 0 W/m 10,5 km/h (2 Bft) 97,87 %
22.02.2016 23:54 2,6 C 2,8 C 1,7 C 97 % 15 lf 1009,8 hPa 0,0 l/m 0 min 0 min 0 W/m 12,6 km/h (3 Bft) 97,87 %
22.02.2016 23:56 2,6 C 2,8 C 1,7 C 97 % 15 lf 1009,9 hPa 0,0 l/m 0 min 0 min 0 W/m 14,6 km/h (3 Bft) 95,74 %
22.02.2016 23:58 2,6 C 2,8 C 1,7 C 97 % 15 lf 1009,8 hPa 0,0 l/m 0 min 0 min 0 W/m 14,6 km/h (3 Bft) 95,74 %
_ Min-Zeit 20:44 19:56 18:20 02:06 00:00 10:00 - - - - 17:30 02:36
Minimum _ 2,5 C 2,2 C 1,7 C 82 % 0 lf 1005,2 hPa - - - - 4,2 km/h (1 Bft) 85,11 %
_ Max-Zeit 00:00 00:00 00:00 14:22 06:30 22:56 12:38 00:00 04:52 11:50 03:34 00:02
Maximum _ 11,6 C 11,7 C 10,0 C 97 % 15 lf 1010,1 hPa 0,4 l/m 0 min 2 min 142 W/m 66,9 km/h
W (8 Bft)
100,00 %
Durchschnitt _ 7,4 C 7,3 C 6,1 C 93 % 10 lf 1007,1 hPa #12,2 l/m #0 min. #11:38 h 61 W/m 27,8 km/h (4 Bft) 95,99 %
© 2016 W. Hausmann